GFSFLT1_500_spd_000.txt.gz
Wind_Speed
25 28 29 31 32 33 33 34 35 37 39 42 44 46 48 49 51 52 52 53 53 52 51 50 50 51 51 50 49 49 49 48
28 29 30 33 34 34 35 36 38 40 42 44 45 48 51 52 53 55 57 58 58 57 57 57 56 55 54 54 54 54 54 53
27 27 30 32 34 36 38 40 42 44 47 50 52 55 56 57 58 59 61 63 64 63 62 61 60 60 59 59 59 59 59 59
28 31 34 35 37 39 41 44 47 49 51 53 56 61 61 62 63 65 67 67 69 68 66 65 65 64 64 64 64 64 63 63
26 30 33 35 38 41 45 48 50 53 55 57 60 63 65 66 66 67 70 71 70 72 71 68 67 68 68 67 66 67 68 70
27 30 33 36 40 45 48 52 55 57 59 63 64 66 67 70 72 70 70 70 70 71 73 71 67 68 67 68 68 68 70 71
32 35 39 42 44 47 50 54 58 61 63 65 66 68 71 71 70 71 73 70 69 72 74 72 70 70 70 69 69 68 69 70
40 44 47 49 51 54 56 59 63 66 67 69 70 70 70 70 69 69 68 66 68 70 70 69 69 71 72 73 74 73 73 73
45 48 51 53 56 60 63 67 69 70 71 72 74 75 71 71 68 65 64 64 65 66 66 67 68 70 71 73 76 79 82 83
52 53 55 57 61 64 67 72 74 74 75 76 74 70 69 68 66 67 65 65 64 65 65 66 67 69 73 77 80 83 87 89
57 57 58 59 62 66 70 74 76 76 75 73 71 68 68 66 66 66 64 65 65 66 69 69 71 74 78 81 85 88 92 92
58 59 59 61 64 68 73 76 77 75 74 71 67 66 64 63 63 64 64 64 65 66 69 72 75 79 84 87 89 89 91 92
61 59 60 66 69 72 76 78 76 72 69 66 65 63 60 60 63 62 62 64 65 70 72 76 80 82 83 84 87 91 93 91
62 63 66 70 73 76 78 79 72 69 64 64 62 59 59 61 60 61 62 65 68 72 77 79 79 81 85 89 88 85 78 67
65 66 71 74 76 80 79 74 69 64 61 61 60 60 60 60 61 62 65 67 73 74 75 77 81 85 83 77 66 58 52 44
70 72 75 76 80 82 77 72 68 63 58 57 59 58 59 60 61 62 67 73 73 74 78 81 80 75 63 55 43 37 35 32
74 76 76 80 83 81 74 70 66 60 56 56 56 57 58 61 62 68 72 72 74 79 77 72 61 55 39 34 32 31 34 35
73 76 79 82 82 76 72 70 63 58 56 55 55 58 60 61 68 70 71 74 75 72 61 50 43 29 29 26 28 33 36 36
78 79 82 82 79 74 72 66 59 56 54 54 57 59 61 67 68 69 72 71 66 52 41 34 27 23 25 28 33 37 35 34

GFSFLT1_500_spd_006.txt.gz
Wind_Speed
15 16 21 21 23 25 27 28 30 32 34 36 39 40 45 46 49 51 50 54 56 59 61 59 58 58 57 57 56 54 51 50
23 21 22 24 28 29 32 35 36 36 41 43 46 48 49 51 52 55 55 58 60 64 70 71 70 65 60 59 59 59 59 56
22 25 26 30 33 36 39 42 44 45 46 50 51 53 54 57 59 62 63 63 63 67 67 66 68 69 69 67 64 60 59 58
25 25 29 32 35 38 42 46 49 51 52 55 56 56 58 60 64 66 67 69 71 70 67 67 68 67 66 67 67 66 62 58
29 31 34 40 41 41 44 49 49 50 53 54 56 59 60 61 64 68 71 74 74 74 71 68 68 66 64 64 64 63 63 63
38 39 41 43 45 48 48 51 50 51 56 57 58 58 60 63 67 71 74 73 71 70 67 65 62 64 63 65 62 61 61 62
38 41 42 45 50 51 52 53 52 54 56 59 60 60 62 67 71 72 70 67 65 64 61 61 59 59 62 63 63 62 60 59
44 46 48 50 54 54 57 56 56 56 57 59 61 63 66 69 70 71 71 67 62 61 60 60 60 65 64 61 61 60 58 56
56 55 55 56 58 56 56 62 64 63 64 63 65 64 67 68 70 71 64 61 60 59 57 59 60 64 65 64 61 59 58 54
60 59 63 61 59 62 66 62 64 63 64 66 65 67 69 72 70 67 62 62 61 57 57 56 62 65 67 65 62 57 54 53
62 64 65 64 63 66 66 66 64 65 65 64 67 71 74 73 68 64 62 61 59 56 56 62 65 68 67 62 59 57 56 54
65 64 65 66 66 66 66 66 63 61 64 68 71 72 73 68 65 63 61 59 57 57 60 62 66 64 62 60 59 59 62 64
62 62 67 65 65 64 65 64 64 67 70 72 72 75 75 67 62 60 58 57 54 55 59 59 59 60 61 61 64 68 72 75
62 65 67 65 65 64 65 68 71 72 73 75 78 79 69 63 61 59 57 53 53 54 55 57 59 62 65 70 74 75 75 76
63 63 64 65 65 65 69 73 75 76 77 80 83 73 65 64 59 55 52 50 51 53 56 60 65 70 72 73 74 76 77 76
61 64 66 67 69 71 75 77 79 79 82 84 80 69 65 59 54 50 49 50 52 56 62 67 69 71 73 75 75 74 71 64
66 67 68 69 74 76 77 82 82 83 86 81 71 67 62 54 50 50 50 53 58 64 65 67 69 72 73 71 68 58 45 38
71 72 74 76 79 81 81 83 84 85 80 73 68 62 54 51 50 52 55 59 62 63 65 69 70 69 63 55 45 39 32 28
74 75 77 80 82 82 83 84 85 80 73 67 59 54 51 50 51 55 59 60 62 65 68 68 65 56 46 42 33 28 28 30

GFSFLT1_500_spd_009.txt.gz
Wind_Speed
15 15 16 20 23 25 27 29 30 33 35 39 42 43 45 47 50 52 51 52 54 54 56 56 56 59 61 62 61 61 60 55
24 24 23 24 24 26 31 36 38 38 43 46 47 48 48 50 53 55 55 56 58 58 59 61 62 65 66 65 64 64 64 63
26 28 28 29 32 37 39 40 43 47 49 48 50 50 50 53 55 57 59 60 60 60 61 65 68 70 71 67 67 65 65 65
30 34 36 38 38 37 40 45 48 51 51 51 51 51 52 54 57 59 62 62 63 66 68 70 72 71 70 67 63 62 63 62
34 37 39 40 40 43 45 48 49 52 55 56 54 53 55 57 58 61 62 63 65 68 70 72 72 70 64 60 59 57 60 63
35 39 43 41 40 38 42 48 49 51 51 53 57 59 58 58 57 59 64 66 66 69 71 72 71 67 62 60 60 59 58 57
47 46 46 42 38 42 46 48 50 50 52 54 55 58 58 59 59 60 62 66 68 69 69 67 63 60 59 60 59 58 60 61
52 53 52 52 51 53 53 55 59 59 61 61 62 60 59 58 58 61 64 64 64 65 65 63 61 60 59 56 60 64 62 67
57 60 60 61 58 58 59 61 64 62 60 63 64 62 62 64 66 66 66 67 65 63 63 63 63 59 56 57 63 65 64 66
60 62 63 62 62 61 63 65 65 62 60 61 61 62 65 66 66 67 69 68 63 60 59 60 62 64 65 64 63 63 66 66
57 57 57 60 59 61 64 65 63 63 62 61 63 66 67 68 68 69 70 64 60 58 59 61 62 62 63 63 62 63 65 66
59 59 58 60 63 62 61 62 62 62 62 65 68 69 71 71 71 70 66 59 59 58 60 59 58 57 59 60 63 63 62 61
56 54 58 59 59 59 61 62 64 66 67 70 72 73 73 72 71 66 60 59 59 57 57 56 55 56 57 58 61 61 62 64
54 56 57 59 60 63 65 67 69 72 74 75 75 76 75 77 73 66 60 59 55 53 53 52 53 55 57 59 63 66 68 69
56 58 60 63 65 68 69 71 74 77 78 77 78 77 77 74 65 60 56 52 51 50 51 52 54 56 61 65 67 68 70 71
57 61 63 64 66 69 73 75 76 77 79 80 80 78 76 71 61 54 51 49 48 49 51 54 58 61 63 66 68 69 68 67
64 66 69 72 74 76 78 79 79 82 82 82 80 78 69 60 55 50 49 49 50 52 56 57 59 62 64 66 66 63 58 49
69 73 75 77 78 79 80 81 82 82 82 80 75 66 58 52 48 48 49 49 52 54 55 58 61 63 64 62 57 48 35 28
73 76 78 79 80 81 82 82 81 80 78 75 67 58 51 48 48 48 48 53 53 54 57 60 62 63 59 53 39 26 24 24

GFSFLT1_500_spd_012.txt.gz
Wind_Speed
17 18 19 21 24 27 29 32 37 38 37 40 44 45 45 46 48 49 50 51 54 55 55 56 56 57 56 56 57 58 61 63
23 25 28 30 32 36 39 42 42 43 45 47 49 51 52 52 54 53 52 52 55 57 58 60 61 60 59 61 62 62 64 67
28 28 31 35 33 35 40 43 46 47 50 51 54 55 54 54 54 56 58 58 58 58 60 61 60 58 59 62 63 64 65 66
33 32 32 31 35 36 37 39 45 50 51 53 54 54 53 54 58 58 58 60 61 61 61 61 63 62 61 63 65 66 66 66
33 33 32 32 34 35 36 38 44 49 51 55 57 59 59 58 57 58 60 60 61 61 62 62 62 65 66 67 68 68 63 61
34 36 39 42 42 43 44 45 47 51 49 50 56 57 58 60 58 58 59 59 58 60 63 65 66 65 66 69 72 70 65 63
43 44 47 49 49 49 47 48 51 52 54 54 55 57 56 57 56 57 58 60 60 60 62 63 65 68 69 70 69 68 69 69
47 49 53 54 56 54 53 53 55 57 60 60 60 59 60 61 61 63 65 68 68 67 66 66 66 67 65 66 68 67 70 72
49 52 53 55 56 60 59 58 60 62 61 61 61 62 62 62 64 67 69 69 69 69 67 67 64 61 64 67 67 69 70 71
49 50 50 52 58 59 59 59 59 59 60 62 63 63 65 67 68 70 68 69 69 68 66 65 62 60 65 67 68 67 68 68
46 49 53 56 54 54 53 56 58 61 63 65 66 68 70 71 71 71 71 72 71 68 63 61 62 65 67 66 65 68 68 66
49 53 49 50 54 54 56 58 60 63 65 69 71 73 74 73 74 75 73 72 70 65 62 62 62 64 67 68 68 67 66 64
50 48 50 54 56 60 60 61 64 69 70 72 72 74 76 77 76 73 71 70 67 63 60 59 59 61 61 62 63 62 61 61
52 56 54 55 61 62 63 67 70 72 73 74 75 75 75 72 72 71 71 67 63 59 55 54 54 56 58 59 59 59 60 61
58 57 57 63 65 66 70 73 76 77 76 76 75 74 73 73 71 72 68 60 56 53 52 51 52 53 54 56 58 59 60 62
58 61 62 68 68 73 77 81 83 81 78 77 76 76 74 72 71 67 59 52 50 49 49 50 51 54 56 56 59 61 62 61
62 67 68 68 72 77 83 85 82 79 79 79 79 76 72 69 65 57 52 50 49 49 50 51 55 54 55 58 61 59 56 54
65 68 70 73 77 81 85 82 82 81 81 82 80 75 65 57 52 49 48 48 48 48 51 53 53 54 57 59 57 54 51 39
67 73 74 76 79 83 83 82 84 84 84 83 78 68 58 52 47 47 48 47 47 50 51 52 53 56 58 55 52 46 31 25

GFSFLT1_500_spd_015.txt.gz
Wind_Speed
20 21 23 25 28 32 33 33 37 41 42 43 45 47 48 48 49 51 53 54 54 55 57 59 59 58 57 57 58 60 60 59
25 27 28 26 26 30 32 36 39 41 42 44 49 50 50 53 54 53 52 53 56 59 59 60 60 60 60 60 60 61 60 61
26 29 32 31 32 32 34 36 40 45 48 48 50 52 51 54 54 56 59 62 62 61 59 59 60 61 61 60 59 58 59 60
29 32 34 32 33 33 35 39 44 49 53 55 55 53 55 54 56 59 62 65 65 65 63 61 60 60 60 61 62 61 59 61
29 31 32 32 33 35 39 43 48 50 53 55 59 57 58 60 63 64 64 64 64 65 64 63 63 64 66 67 67 67 66 63
35 35 32 36 39 41 46 50 54 54 53 54 56 57 58 59 59 59 60 61 62 63 63 64 66 67 68 69 69 69 68 68
43 42 44 44 46 51 54 56 58 55 55 56 59 59 57 57 58 61 61 63 64 66 67 68 66 64 65 66 66 67 69 68
49 49 50 52 55 58 58 59 60 59 57 56 56 58 60 62 64 67 69 71 72 71 70 69 68 67 65 65 65 65 67 65
49 52 53 56 58 58 58 59 58 58 58 59 61 63 64 67 71 74 75 75 75 74 72 71 67 65 64 62 66 65 62 64
51 53 55 56 55 54 55 55 56 56 60 61 63 65 69 73 76 77 78 78 79 77 72 68 66 63 62 61 65 64 62 66
45 47 51 52 50 53 53 55 58 63 65 66 68 71 74 77 79 80 81 81 79 76 70 68 66 63 62 57 62 67 69 72
44 47 49 48 54 59 59 59 62 66 70 70 71 74 78 81 80 76 74 73 72 70 67 66 64 63 61 61 62 65 68 71
44 47 52 56 59 61 63 63 66 70 72 72 74 81 83 81 78 77 73 72 70 68 63 63 63 60 57 56 57 60 61 62
53 55 57 58 60 64 68 70 77 78 78 79 81 82 84 83 80 80 75 69 69 63 61 59 55 52 52 53 54 56 56 57
55 56 58 60 62 63 67 73 78 80 82 83 84 88 92 84 86 86 75 68 59 56 55 52 50 51 51 51 51 52 56 58
57 58 60 62 64 68 73 76 77 80 82 86 91 93 95 87 84 83 73 62 52 49 48 47 48 48 49 50 53 56 55 57
58 58 62 65 71 73 76 80 82 84 84 84 92 92 85 86 87 70 58 52 51 52 53 51 48 48 51 53 53 54 56 57
61 63 68 71 73 77 79 83 87 88 86 86 86 87 86 83 64 50 47 48 49 49 48 46 47 50 51 52 53 54 53 52
66 68 70 75 78 80 81 82 86 87 83 82 87 86 71 53 47 45 47 48 47 46 45 47 49 50 51 52 52 50 48 47

GFSFLT1_500_spd_018.txt.gz
Wind_Speed
23 25 28 29 29 32 33 36 38 39 40 41 41 43 45 48 50 51 53 53 54 55 56 58 59 59 58 59 58 58 59 59
26 28 29 31 32 33 33 38 40 41 41 45 48 50 51 53 54 55 56 56 56 57 58 59 61 61 60 60 59 59 59 58
27 27 28 30 31 32 35 40 43 45 47 52 55 55 57 57 57 56 58 60 62 63 63 62 61 61 61 62 61 59 56 55
28 29 29 31 34 36 39 42 46 49 52 56 55 56 58 59 59 56 56 58 59 60 61 62 63 64 64 65 65 65 63 62
32 30 32 34 34 36 41 44 46 50 54 56 56 56 57 56 55 56 57 58 58 59 61 63 64 66 67 68 69 68 68 67
36 38 38 40 41 44 48 50 51 53 53 56 57 56 54 55 54 56 58 60 62 63 65 67 68 69 69 68 69 68 69 67
42 44 45 46 46 48 50 50 50 52 54 55 55 56 58 59 62 63 64 65 67 69 72 74 75 75 74 74 72 70 68 64
45 47 49 50 50 50 52 54 57 57 57 63 66 64 63 67 69 72 73 74 75 74 76 80 81 79 77 75 72 70 68 65
49 50 51 51 52 54 56 57 57 58 61 67 66 65 65 69 72 75 77 78 79 82 82 79 78 77 76 72 68 66 65 63
47 47 47 49 51 53 56 58 59 61 64 69 68 69 70 72 79 80 80 81 82 83 82 81 79 76 73 70 66 66 62 60
42 43 45 48 53 54 56 58 60 62 65 71 74 74 77 81 84 83 81 82 85 87 86 87 84 77 69 64 64 61 57 59
41 43 47 52 52 55 60 63 64 67 70 71 71 73 77 80 84 84 84 85 85 86 89 83 78 72 59 60 57 56 58 55
46 50 53 58 60 61 63 65 66 69 71 73 78 80 83 87 88 89 92 89 88 85 80 76 61 55 54 53 52 53 51 51
55 60 62 63 65 65 67 68 69 72 76 78 79 81 85 88 90 91 90 88 84 74 67 53 48 49 48 49 48 49 50 50
62 62 63 66 66 67 69 70 73 75 78 81 84 89 92 89 90 92 88 81 74 55 45 42 43 46 47 48 49 48 46 47
63 66 67 67 68 70 72 73 75 79 82 85 90 95 93 92 89 83 76 65 50 44 45 47 50 52 54 55 50 46 47 50
66 67 67 68 70 71 72 73 78 82 86 87 87 89 88 83 74 67 48 40 41 46 49 50 50 49 48 46 46 47 49 50
67 69 71 72 73 74 73 77 83 88 87 86 90 89 81 70 62 52 43 42 43 46 48 48 46 44 43 44 47 49 49 51
72 73 74 75 75 77 79 82 88 88 87 87 86 75 67 59 51 48 47 45 44 44 44 45 44 44 46 48 48 48 49 49

GFSFLT1_500_spd_021.txt.gz
Wind_Speed
19 22 26 30 32 32 35 38 39 40 40 41 43 45 47 49 52 51 52 53 52 51 51 51 52 53 54 54 54 53 52 52
23 27 28 29 32 33 34 38 40 41 41 43 47 50 52 53 56 54 54 55 56 57 57 57 58 58 58 57 57 57 57 57
29 30 29 31 31 32 37 40 40 40 44 49 51 51 53 55 55 55 56 56 56 56 58 59 59 60 61 61 61 62 62 61
31 31 32 34 34 36 39 42 43 45 48 50 50 52 54 55 55 56 58 58 60 59 58 60 62 63 64 65 65 66 67 66
31 33 33 34 36 38 42 44 45 47 48 48 50 53 55 56 55 57 59 60 61 61 63 64 64 66 67 69 69 71 70 72
34 36 38 39 42 44 45 46 46 46 48 51 52 55 56 58 59 62 62 62 63 66 68 69 71 72 72 72 73 72 74 71
38 40 42 44 45 44 44 45 47 50 53 56 58 62 64 66 67 69 71 73 73 73 74 76 78 80 80 79 78 77 73 71
42 44 45 45 46 48 50 51 53 57 60 62 64 66 69 72 73 74 76 79 79 79 80 82 83 82 82 80 80 80 79 77
43 43 44 46 49 51 52 53 57 62 65 66 68 71 73 74 74 77 78 79 79 83 86 86 86 84 83 80 78 81 81 78
40 43 46 49 50 52 55 59 63 65 67 68 70 72 73 74 75 77 78 82 84 84 84 86 87 88 86 83 84 81 77 75
41 46 49 51 54 54 57 60 63 66 70 71 72 74 76 77 79 82 84 84 86 89 91 91 88 86 83 81 77 71 66 64
47 49 50 53 55 60 63 65 68 69 70 72 74 75 77 79 80 82 85 89 91 91 91 87 82 75 69 67 59 54 52 48
49 51 54 58 62 64 67 69 69 71 73 76 77 78 78 80 85 88 89 90 90 91 85 76 66 57 51 49 46 48 46 47
52 57 59 62 64 67 69 71 72 74 75 76 76 76 82 86 89 92 93 91 86 75 66 58 45 41 41 42 43 44 45 46
58 60 62 65 67 69 72 74 76 77 78 77 79 82 85 90 95 93 87 78 67 60 51 43 42 45 45 46 48 49 51 51
60 64 67 68 70 73 74 76 78 77 76 80 84 84 87 92 93 84 72 65 56 48 43 43 45 48 49 50 50 48 46 44
65 68 71 71 74 79 81 80 78 79 83 86 92 95 94 94 82 69 63 53 48 46 45 45 46 46 47 47 45 44 43 43
71 72 72 76 79 84 84 84 84 86 89 93 92 91 92 74 65 57 52 51 50 48 46 44 44 44 44 44 44 43 43 45
73 75 76 76 82 86 86 84 84 86 86 87 91 84 69 61 53 51 51 51 49 48 48 49 49 50 50 49 48 48 48 48

GFSFLT1_500_spd_024.txt.gz
Wind_Speed
20 22 23 27 31 35 36 38 35 37 40 41 42 42 45 47 49 50 51 52 51 51 51 53 55 56 57 58 56 55 53 53
23 24 28 32 34 36 38 40 39 40 41 43 45 47 49 51 52 52 53 54 56 56 57 57 59 61 62 62 62 62 62 61
27 30 33 34 36 37 39 40 41 43 45 46 48 50 51 52 51 53 55 57 58 59 61 62 63 63 64 64 64 66 67 65
30 33 35 36 37 38 40 41 44 46 48 49 49 50 50 51 54 58 60 61 62 64 65 68 69 67 67 67 68 69 69 70
31 32 34 36 38 40 41 43 45 45 46 48 50 51 53 54 57 61 64 63 65 67 68 69 71 72 73 74 73 73 73 73
32 35 37 40 42 43 44 43 44 46 49 50 51 55 60 63 65 65 68 71 73 75 75 77 77 77 77 77 76 76 79 79
35 38 41 41 41 41 42 45 48 51 53 54 56 59 62 67 70 72 74 76 78 80 81 80 79 78 78 79 81 81 80 81
40 41 42 43 43 44 48 51 54 56 58 61 64 68 69 71 74 76 77 78 79 80 81 82 83 84 84 82 81 83 83 85
40 42 41 43 45 49 52 54 55 59 62 65 68 69 71 73 74 76 77 78 79 81 83 84 84 85 87 86 86 87 88 87
38 40 43 45 50 53 53 55 58 60 63 66 67 69 70 73 76 79 80 81 82 82 84 87 88 90 91 92 91 87 86 84
42 45 47 50 51 53 55 58 59 61 63 66 70 73 75 77 78 79 80 80 82 86 88 90 91 91 88 83 77 72 68 68
44 46 48 52 54 57 59 61 64 67 69 69 73 76 77 78 78 79 81 85 86 89 87 88 81 74 69 64 59 55 53 52
47 50 54 55 57 60 64 66 69 72 72 73 77 77 79 78 79 82 86 88 91 90 82 72 67 60 54 49 47 45 46 48
52 55 56 59 63 66 67 68 70 73 74 77 80 83 84 86 85 87 90 91 88 78 69 60 52 47 46 46 47 48 48 47
56 59 62 65 69 70 72 73 77 77 78 82 87 87 86 91 91 90 90 87 73 65 54 49 47 47 47 48 49 50 50 51
60 63 66 69 71 74 76 78 81 82 83 88 92 94 93 92 91 91 81 68 58 53 51 50 51 50 47 45 46 46 47 47
64 69 72 76 77 77 78 78 79 86 90 91 92 95 92 89 85 74 62 53 53 53 52 51 51 51 49 50 48 48 47 47
70 74 78 78 79 78 78 84 86 85 89 93 94 89 87 84 74 60 52 52 51 52 53 54 55 56 54 54 53 53 52 51
76 79 80 77 74 78 84 87 84 89 90 89 85 84 80 72 60 51 51 51 52 54 57 58 58 58 56 55 53 52 51 52

GFSFLT1_500_spd_030.txt.gz
Wind_Speed
26 24 24 26 26 31 34 39 42 42 43 44 46 48 50 52 52 53 50 51 50 51 53 55 56 57 58 61 62 62 63 62
28 27 26 26 30 35 37 41 42 46 45 48 52 53 55 55 55 55 53 54 53 55 56 58 60 63 65 67 67 66 66 67
29 29 29 31 34 38 41 44 47 48 49 53 53 54 55 54 54 55 57 58 57 59 61 64 66 67 68 68 69 69 69 69
29 30 32 36 39 42 45 48 48 48 52 55 54 53 52 53 56 58 59 61 65 66 69 69 69 70 71 72 73 74 75 72
30 32 36 39 42 45 47 48 50 50 52 52 52 51 53 56 58 60 63 65 66 68 70 71 73 74 75 75 74 71 71 72
35 37 41 43 44 46 47 50 50 50 48 48 51 53 54 58 61 63 64 66 69 71 71 73 74 74 75 77 78 78 77 79
41 42 46 46 45 47 47 49 47 50 50 50 53 56 57 59 63 66 69 70 72 72 73 73 75 76 78 79 81 82 82 81
43 46 47 48 49 50 44 43 45 48 51 56 59 60 63 66 69 71 71 71 73 75 74 75 78 80 81 81 82 83 84 84
45 46 46 47 47 45 44 45 49 53 57 60 63 66 68 71 74 75 73 73 73 74 78 82 84 82 81 83 83 83 83 83
44 46 47 43 42 44 48 51 55 58 61 64 67 70 72 73 71 70 71 74 77 81 82 81 80 81 82 83 82 80 73 67
43 40 40 41 44 47 50 52 58 63 66 70 72 75 78 76 74 75 76 80 83 82 83 82 82 83 80 77 71 64 56 51
40 39 41 43 46 50 54 58 63 67 71 75 80 82 82 80 81 80 84 84 85 84 85 83 81 78 73 64 54 49 48 48
38 40 42 46 52 57 61 65 70 76 81 83 85 86 78 78 80 81 82 81 82 83 82 78 74 69 60 51 47 47 47 48
42 45 49 53 58 64 69 74 79 81 84 84 82 72 73 86 86 85 82 83 81 77 74 70 66 59 53 51 49 50 50 50
45 49 55 60 64 70 77 81 82 84 84 79 73 78 87 87 86 83 83 81 76 72 68 64 57 52 50 49 51 53 52 53
50 55 60 65 73 78 82 83 85 83 81 82 85 84 85 84 84 82 79 74 70 65 61 54 51 50 50 51 53 54 56 57
55 60 67 73 78 82 84 86 85 84 85 84 85 86 85 83 83 80 74 69 63 58 53 49 49 51 52 53 54 58 60 58
60 66 74 79 83 86 87 86 85 84 84 85 87 88 82 80 78 71 65 60 55 50 48 47 49 52 53 54 58 59 56 51
67 75 79 82 84 85 87 88 87 88 88 89 88 86 79 76 71 65 59 54 49 48 45 46 50 52 54 57 56 52 48 45

GFSFLT1_500_spd_033.txt.gz
Wind_Speed
27 28 27 27 29 29 30 35 38 39 41 41 41 46 49 51 54 53 53 51 49 50 52 54 54 56 56 58 60 61 61 63
28 31 31 29 27 30 34 39 42 44 45 48 46 51 54 56 55 54 52 52 54 56 56 57 59 60 62 63 65 66 67 69
28 31 33 33 32 35 37 41 44 48 50 51 51 52 54 53 53 55 57 57 57 59 61 62 64 66 68 69 71 73 74 76
27 30 33 34 36 39 42 44 47 50 50 49 50 50 49 50 52 54 56 60 62 64 67 70 72 73 74 75 76 76 75 76
28 32 33 36 38 42 46 47 48 47 49 50 48 47 49 50 53 58 60 61 64 66 69 72 74 76 78 78 79 79 79 78
29 32 36 38 41 44 47 48 49 49 45 42 44 47 50 54 58 61 63 65 68 71 72 73 76 77 77 78 78 79 81 82
37 37 38 38 40 42 45 48 49 49 49 49 49 51 54 58 61 64 67 70 72 72 73 75 75 76 77 79 80 82 81 81
41 41 42 42 41 43 45 43 42 44 47 49 53 58 61 65 69 72 74 76 78 81 78 76 75 77 80 81 81 81 80 80
44 43 47 43 46 46 43 42 44 46 49 53 57 62 67 71 75 78 80 82 81 80 76 76 79 82 82 81 79 81 80 80
47 47 45 42 40 41 41 42 44 47 51 57 64 69 73 77 79 79 80 75 77 77 76 86 80 80 79 81 79 76 73 72
41 37 37 37 39 40 41 45 49 54 61 68 72 76 80 80 78 78 77 79 76 79 88 86 84 81 81 77 73 68 63 59
42 39 37 35 38 43 48 51 59 65 70 75 79 83 85 85 85 84 83 82 83 84 86 84 82 78 72 68 64 59 53 46
40 38 39 42 47 51 54 60 65 72 77 81 85 87 88 87 82 84 84 84 84 83 82 80 74 66 62 60 57 51 46 46
38 41 45 48 52 56 61 67 74 78 82 86 89 90 89 84 81 82 85 85 81 79 75 68 62 58 57 53 49 45 46 49
39 44 49 54 59 64 69 75 79 83 86 87 87 86 86 83 83 84 84 81 75 68 63 58 56 53 49 46 44 45 48 51
43 48 52 57 61 67 73 78 82 86 86 86 85 86 84 88 88 90 87 74 66 62 58 54 51 47 46 42 44 48 50 51
48 52 57 61 66 71 77 82 85 87 87 89 90 92 98 99 92 85 74 68 63 58 53 50 47 44 40 42 46 49 52 55
52 57 62 67 72 78 82 85 88 88 90 92 93 92 90 85 72 62 68 75 59 56 49 45 41 37 40 44 46 49 53 51
59 63 69 73 77 82 86 88 89 91 93 91 88 85 80 74 44 66 69 63 52 56 42 37 33 39 44 46 49 51 50 46

GFSFLT1_500_spd_039.txt.gz
Wind_Speed
18 19 21 22 22 21 24 24 26 29 36 42 43 46 46 47 47 47 52 50 47 44 43 43 43 45 48 48 51 54 55 57
23 25 25 25 21 21 26 29 35 43 45 48 49 48 48 51 54 53 54 50 48 48 47 49 52 54 57 60 62 63 65 67
26 25 25 25 25 27 31 36 40 43 46 49 52 54 55 56 56 56 52 51 51 51 54 57 61 65 67 69 72 74 76 76
26 25 25 24 28 32 36 42 47 50 52 53 54 56 57 57 56 53 52 51 52 57 61 67 71 73 74 77 79 82 83 84
24 25 28 29 33 39 38 40 43 47 50 52 57 59 59 57 54 54 54 57 61 65 69 73 76 79 81 83 84 86 87 87
26 28 33 35 39 40 40 40 44 46 51 56 57 55 53 51 51 52 56 59 64 69 73 77 80 82 84 86 86 85 85 85
31 38 39 42 41 42 40 43 45 50 52 50 49 49 48 49 54 57 61 66 70 74 78 81 84 86 87 87 87 86 86 86
31 38 44 46 37 43 37 40 43 48 45 42 42 46 51 55 59 63 67 71 77 80 84 87 90 90 88 87 86 86 87 89
36 41 42 49 30 30 39 40 40 37 37 42 45 49 54 58 63 68 74 79 82 86 89 91 90 88 87 87 88 90 90 90
39 44 46 37 34 35 32 32 34 37 41 46 51 55 61 67 72 77 80 83 87 90 92 93 91 90 91 91 91 88 84 79
32 32 30 33 33 30 34 36 39 44 49 54 58 63 69 73 78 81 85 88 92 93 94 94 94 94 93 91 89 79 68 72
31 31 33 32 33 37 38 42 47 51 55 59 65 70 73 77 81 86 90 93 95 95 95 95 96 96 91 84 72 63 64 69
34 33 33 36 38 40 44 48 52 55 59 64 69 71 75 81 86 89 92 94 95 97 95 95 92 80 73 66 60 62 67 69
37 36 38 40 42 45 49 52 55 59 64 69 73 77 82 86 89 91 93 93 95 95 96 91 76 68 64 52 59 62 70 49
38 40 41 42 45 49 52 55 59 64 70 74 77 82 86 89 90 90 92 95 97 97 91 78 65 58 52 51 57 65 50 40
39 40 42 45 48 52 55 59 65 69 74 77 81 87 91 92 94 96 96 97 95 84 72 64 47 49 56 57 59 43 39 44
39 42 45 49 53 56 60 64 69 74 77 81 86 89 91 92 92 93 94 91 79 65 58 51 44 46 51 54 46 39 46 47
43 46 48 51 55 60 64 69 74 78 82 86 89 92 91 91 91 93 89 74 60 53 46 44 45 46 50 48 39 45 46 49
47 49 52 56 61 65 70 73 78 81 85 89 91 90 89 89 91 86 70 52 45 38 33 32 32 36 33 37 42 45 49 50

GFSFLT1_500_spd_042.txt.gz
Wind_Speed
15 16 18 20 22 23 21 18 21 31 28 37 42 44 46 45 44 52 52 53 54 53 51 47 42 39 41 45 50 54 56 58
18 20 22 23 23 21 22 23 29 37 40 44 50 53 54 57 55 54 55 56 55 54 50 46 44 46 50 54 58 63 65 66
22 22 24 25 23 17 28 33 37 41 44 48 48 51 54 55 56 58 58 56 54 50 48 50 53 58 62 66 69 72 75 78
27 24 24 26 28 33 38 42 42 44 47 48 48 54 55 56 56 55 54 52 50 52 57 62 64 68 72 75 78 81 82 82
32 31 28 30 31 35 40 41 45 49 51 49 53 57 55 53 53 50 49 51 55 59 63 66 69 74 77 81 84 84 85 86
32 32 30 33 37 40 44 48 50 45 46 48 50 55 53 51 50 51 54 57 60 63 67 71 74 77 80 82 84 87 89 90
30 31 33 35 39 42 44 42 45 37 41 45 49 52 47 47 51 55 58 61 64 67 70 74 79 82 85 88 90 91 92 93
31 34 30 40 45 45 48 60 42 38 43 47 46 45 47 50 54 58 60 64 67 72 78 81 85 89 92 93 93 95 95 95
26 28 36 41 45 47 48 44 38 41 40 41 43 46 50 54 57 61 66 71 76 81 85 88 91 93 94 95 96 97 97 97
29 33 36 39 41 44 43 44 41 39 42 44 47 51 54 58 62 68 74 79 82 86 90 93 95 97 97 98 99 101 98 90
33 34 34 35 37 37 35 36 41 43 45 48 52 56 59 65 71 76 80 83 88 93 95 96 97 98 98 98 99 90 79 67
31 33 35 35 34 35 38 41 43 47 51 54 58 61 66 71 76 81 85 89 93 96 99 100 99 99 100 94 81 70 56 54
38 38 38 39 41 43 45 47 49 52 55 59 61 66 72 77 82 86 90 93 97 99 101 100 99 99 89 75 65 54 45 47
40 41 40 42 44 46 47 49 52 56 59 63 67 72 78 82 86 90 94 97 98 99 98 98 95 82 68 61 49 43 47 53
40 40 40 43 45 47 50 53 56 59 63 68 72 78 81 85 88 92 95 97 99 97 96 88 73 62 56 48 42 42 43 47
41 42 44 46 48 50 53 55 58 63 69 73 76 80 85 87 90 93 95 96 96 95 83 67 53 47 39 34 32 34 40 40
45 45 47 48 50 53 55 58 63 69 71 74 79 83 87 89 92 94 95 97 94 80 63 45 36 36 36 36 36 35 39 43
48 49 49 50 52 55 59 63 66 67 72 78 82 85 87 90 93 95 96 91 76 62 43 38 35 36 36 36 37 38 42 45
51 51 50 52 54 59 62 63 67 72 76 80 83 86 88 91 93 95 88 75 62 44 38 36 35 36 36 38 39 40 44 47

GFSFLT1_500_spd_045.txt.gz
Wind_Speed
19 17 17 15 17 19 21 23 23 25 37 33 38 46 45 43 41 41 44 47 48 49 49 46 42 40 39 40 42 45 49 54
16 20 17 19 22 23 26 25 35 32 31 45 51 49 50 51 51 51 53 52 49 46 43 40 41 44 46 49 52 55 59 63
20 22 22 24 25 23 22 25 37 42 46 47 49 51 52 51 52 53 54 51 47 45 46 49 52 54 57 60 63 66 69 70
23 27 27 28 31 33 35 33 36 43 48 47 51 54 57 53 51 53 53 49 46 48 52 55 58 60 63 65 67 69 71 73
24 26 26 27 30 34 36 38 44 47 47 47 49 51 54 50 50 53 49 47 51 53 55 58 59 61 64 68 73 77 79 82
24 28 30 31 30 33 37 41 43 45 45 47 46 47 47 50 50 48 50 52 56 57 58 59 65 69 74 78 82 86 89 92
25 27 29 31 33 35 36 39 47 52 57 53 43 43 48 48 48 51 54 56 59 61 65 69 74 79 83 87 90 94 98 99
21 25 29 32 35 38 42 46 49 50 49 47 46 48 47 49 52 56 59 62 64 68 73 78 81 86 90 93 96 98 98 100
21 23 26 29 32 34 36 38 41 43 44 47 47 49 51 53 57 61 63 65 69 75 80 84 88 91 93 95 97 99 102 104
23 25 27 29 31 34 37 38 39 41 43 47 50 51 54 57 59 61 64 70 75 80 83 87 90 93 96 100 102 104 105 98
24 26 27 30 31 33 36 39 41 44 46 49 51 54 57 59 62 66 70 75 79 83 88 91 95 98 101 102 104 98 88 76
26 29 31 33 35 36 38 40 43 46 49 51 54 57 60 62 67 73 76 78 84 89 93 96 97 101 103 104 94 77 66 60
32 36 37 39 40 41 41 43 45 48 51 55 57 60 63 69 73 74 79 85 89 92 94 95 99 102 98 83 67 54 50 46
37 40 42 43 45 45 45 46 48 51 54 56 59 64 69 70 73 79 84 87 90 91 94 98 99 89 74 58 46 42 41 39
40 43 45 46 47 47 46 48 50 53 56 59 64 67 68 73 78 83 86 87 89 92 96 96 85 72 57 43 41 41 40 39
43 46 48 48 49 49 50 51 54 56 59 63 65 67 73 77 81 84 86 87 91 94 92 83 70 57 44 41 39 40 41 41
46 50 50 50 51 52 53 54 56 58 62 64 67 72 77 79 82 84 86 89 92 88 81 71 59 44 38 36 37 40 42 43
49 51 51 51 52 54 55 56 57 60 63 67 72 76 77 79 82 85 87 90 86 78 72 59 47 35 35 35 37 40 42 43
52 52 52 54 56 57 57 57 59 62 67 72 74 76 78 81 83 85 88 84 76 72 60 48 35 33 35 34 37 40 42 42

GFSFLT1_500_spd_048.txt.gz
Wind_Speed
17 19 20 19 22 21 22 24 26 31 29 42 34 36 49 47 41 42 44 45 45 44 46 46 42 38 37 40 41 42 44 46
16 16 18 17 20 23 24 27 30 32 37 46 41 43 46 47 46 46 47 48 48 47 49 46 41 43 44 46 51 53 55 57
15 17 18 19 22 25 28 30 33 37 41 43 45 48 48 49 52 51 53 52 51 54 53 48 50 52 54 55 56 57 59 64
19 21 21 21 24 27 31 34 37 39 42 45 49 51 52 53 54 57 51 50 53 54 51 52 54 56 57 57 60 65 68 72
19 19 21 25 28 29 31 35 39 41 44 48 51 52 57 58 59 50 48 52 51 51 54 56 57 59 60 64 68 73 77 79
18 20 22 24 24 26 26 28 32 36 41 46 48 47 47 48 49 49 52 52 54 57 59 62 63 65 68 73 78 81 83 87
13 13 14 16 19 22 26 29 33 36 39 43 45 47 47 49 49 51 53 57 59 62 64 66 68 72 77 80 82 87 91 94
11 13 15 18 20 24 26 29 31 34 38 42 44 46 47 50 52 56 57 60 63 65 67 70 75 78 80 84 89 92 95 97
14 17 19 22 25 28 30 33 34 35 38 41 44 47 51 52 53 56 59 62 65 68 71 73 75 80 85 89 91 94 96 97
17 20 23 25 29 32 34 37 38 39 40 43 46 48 51 54 55 57 60 63 66 69 71 75 80 86 89 91 94 95 96 99
20 23 25 28 31 34 36 38 40 41 43 46 49 51 54 56 58 60 63 67 68 71 76 82 86 89 90 92 94 96 96 87
26 27 29 32 35 38 40 41 43 45 47 51 53 54 56 59 60 63 66 68 72 77 82 86 88 89 90 92 96 91 81 69
32 34 36 38 40 43 45 47 48 49 51 52 54 56 59 60 63 65 68 72 77 82 84 86 87 88 91 93 85 78 65 48
37 40 42 44 45 47 49 50 51 51 53 55 56 58 60 62 65 68 72 77 80 84 85 86 86 90 91 82 75 62 46 41
41 43 45 48 48 50 51 52 53 55 56 57 58 59 62 64 68 72 77 80 83 84 85 85 89 88 79 74 61 46 39 38
45 46 49 50 51 53 53 54 55 57 58 58 59 61 64 68 72 77 80 81 82 83 84 87 86 78 73 60 48 38 37 38
48 50 51 53 54 53 54 56 57 58 59 60 62 64 68 72 76 79 80 80 81 82 86 85 77 73 62 50 38 35 37 37
50 51 53 54 53 54 57 58 58 59 60 61 63 67 71 75 78 78 79 80 81 84 84 76 71 64 50 38 34 35 35 36
52 54 54 53 54 56 57 58 59 60 61 63 67 71 75 77 78 81 81 80 83 82 74 69 65 51 40 32 32 32 33 38

GFSFLT1_500_spd_054.txt.gz
Wind_Speed
1 3 5 8 8 10 15 17 18 22 25 28 31 33 34 33 34 35 36 37 40 39 40 40 40 42 42 43 42 43 43 44
5 8 10 12 14 12 18 19 22 24 25 27 27 28 29 31 33 34 35 37 38 40 44 44 41 42 45 47 47 47 48 50
10 12 13 15 19 18 19 19 21 23 23 23 25 26 29 31 33 35 37 39 41 44 45 47 50 51 53 53 53 53 54 55
15 16 16 20 20 20 17 19 18 19 20 22 25 28 31 33 36 37 41 42 44 47 49 51 53 55 55 56 57 57 59 59
20 20 20 21 21 19 15 15 16 19 22 25 30 33 36 39 41 43 44 45 47 49 52 54 55 56 58 59 60 60 62 63
24 24 20 20 16 13 15 16 19 23 27 29 33 37 39 42 45 47 49 50 51 51 52 54 56 58 60 61 61 62 65 67
21 19 13 11 13 15 18 21 23 26 30 33 36 40 43 45 47 50 51 53 55 57 59 60 62 64 64 65 66 67 72 76
12 11 12 14 16 19 22 25 28 31 34 38 41 44 47 49 52 53 55 56 58 59 61 63 64 65 66 68 70 73 77 82
13 14 15 19 21 24 29 31 34 37 41 44 47 49 52 52 53 55 56 57 59 60 61 63 64 65 67 71 75 79 83 87
19 20 23 23 27 31 35 39 40 40 45 48 50 52 54 55 56 57 57 59 60 61 62 64 65 67 70 74 79 84 87 88
23 25 27 31 32 34 38 43 44 45 48 50 52 55 56 57 58 58 59 60 61 62 63 65 66 70 74 79 83 85 86 88
28 31 32 34 38 39 41 46 47 49 50 53 55 56 56 57 58 59 61 61 63 64 65 67 70 74 79 83 84 85 86 85
31 35 36 39 42 44 46 50 51 53 53 55 56 56 54 56 58 61 61 64 65 67 67 70 74 77 81 82 83 86 85 88
37 39 42 44 46 48 50 52 53 54 56 57 58 56 56 58 60 62 64 66 66 68 71 74 78 78 81 83 83 84 86 85
42 44 46 48 50 51 54 54 55 56 57 57 57 57 58 60 62 64 66 66 68 74 76 78 80 82 82 81 83 85 83 76
47 49 51 52 52 54 55 55 56 56 57 56 57 58 59 61 63 64 64 67 72 77 78 79 82 82 83 81 84 83 78 68
50 51 52 54 54 54 56 56 57 56 56 56 57 58 60 62 62 62 65 71 76 80 80 82 82 83 83 84 83 76 68 62
50 52 54 55 57 56 57 57 56 56 57 58 59 61 61 61 63 63 69 73 78 81 82 85 84 83 82 81 75 69 62 54
51 53 55 56 57 56 55 56 56 57 58 59 61 61 60 63 66 69 74 76 81 85 86 86 84 83 80 74 68 62 54 45

GFSFLT1_500_spd_060.txt.gz
Wind_Speed
9 6 6 8 4 4 0 2 8 9 11 14 16 14 10 12 14 18 21 23 25 28 30 32 35 37 39 40 42 44 45 46
12 9 5 1 4 7 11 11 10 11 12 13 10 10 12 17 19 22 24 26 30 34 37 39 41 43 44 45 46 47 48 49
5 6 6 5 7 8 10 12 11 12 10 9 11 14 17 21 23 27 31 35 38 40 42 43 45 47 49 50 51 51 52 52
9 8 7 7 8 8 8 11 8 7 10 13 15 18 22 26 29 33 37 40 42 44 45 47 48 50 52 54 54 55 55 56
11 10 8 7 8 8 6 6 7 10 14 18 21 24 27 31 35 38 41 44 45 46 48 50 51 53 54 56 56 56 56 56
5 9 11 10 7 6 7 8 12 15 19 23 26 29 33 37 40 42 44 46 47 48 50 52 52 54 55 55 56 57 59 59
3 8 10 10 7 10 11 14 17 21 25 29 32 34 37 40 43 46 48 50 51 53 54 55 54 56 57 58 59 62 63 64
2 5 6 9 11 14 17 20 23 27 30 34 38 40 42 44 47 50 53 54 56 57 58 60 62 62 62 63 65 66 67 66
4 7 10 14 16 19 21 24 26 30 34 39 43 45 46 48 51 54 55 56 57 58 59 59 60 62 64 65 67 68 67 66
8 11 14 17 20 24 26 28 30 34 37 42 45 47 49 51 51 51 53 54 58 58 58 58 60 63 64 66 68 67 68 71
12 15 17 21 25 28 30 33 35 37 40 44 47 49 50 50 51 52 55 56 58 58 58 59 61 63 65 67 65 68 74 80
18 19 22 25 29 32 35 37 40 42 43 44 45 47 47 42 50 57 56 57 57 58 59 60 62 64 65 67 71 78 80 81
25 26 29 31 32 33 37 41 42 41 44 47 50 50 50 44 59 60 60 59 60 61 62 63 66 67 68 71 73 78 83 85
29 30 32 35 36 38 41 38 39 44 48 49 49 54 55 59 59 60 61 61 63 64 65 66 67 68 71 73 78 82 84 88
30 31 34 37 39 37 34 36 41 46 45 52 57 57 58 58 58 60 61 63 64 65 66 69 73 73 75 79 80 82 85 88
33 32 33 32 33 34 37 39 47 48 55 57 58 58 57 58 60 61 61 63 65 66 70 75 77 79 81 81 82 84 87 86
35 27 31 31 34 36 41 46 55 54 55 56 57 57 57 59 60 62 62 64 65 65 69 75 82 82 82 86 87 85 82 80
36 35 35 37 43 44 51 52 52 53 55 55 55 58 58 60 61 62 63 64 67 70 75 78 80 85 85 85 83 82 78 74
39 40 42 45 48 50 50 52 53 53 53 55 57 57 59 61 61 64 66 69 72 75 76 80 84 83 81 79 76 73 71 65

GFSFLT1_500_spd_063.txt.gz
Wind_Speed
12 10 10 8 7 5 5 4 3 2 6 8 10 8 6 8 11 14 16 18 21 24 29 33 36 39 41 43 44 46 47 48
4 4 1 3 4 6 5 1 4 5 7 8 6 5 8 13 15 17 20 24 27 31 34 37 40 43 44 46 48 48 49 50
8 6 3 2 3 5 5 5 4 7 9 6 7 10 14 17 18 22 26 30 33 37 39 42 44 46 48 50 51 52 52 53
5 5 5 6 6 6 6 8 9 9 7 10 12 14 19 21 24 28 32 35 38 41 44 46 48 50 52 53 54 55 55 56
7 8 8 7 7 7 8 9 8 8 11 14 16 20 23 26 30 33 37 40 43 46 47 49 51 53 54 54 56 55 56 57
8 9 9 11 9 8 7 8 9 9 14 18 23 26 29 31 34 38 42 45 47 49 49 48 50 52 55 56 56 56 57 59
11 11 10 9 8 9 8 8 11 15 19 24 28 30 34 36 39 42 45 47 49 48 52 54 54 54 56 57 58 59 61 62
6 5 4 7 7 8 9 13 16 20 24 28 32 36 38 40 43 46 47 49 51 53 57 59 59 62 61 60 61 64 66 66
6 7 9 10 11 12 16 17 21 25 29 33 36 40 42 44 47 48 48 50 51 57 59 60 61 62 63 64 67 69 69 71
10 11 12 12 13 16 19 22 25 29 33 37 41 44 46 47 48 49 51 52 53 59 64 67 64 63 65 67 69 70 71 73
12 14 14 14 16 20 24 27 31 34 38 42 46 48 47 48 49 51 46 44 54 61 70 64 65 66 68 67 69 70 72 74
16 17 18 20 23 26 30 34 37 40 44 47 47 45 47 49 51 49 50 57 56 64 64 65 67 68 68 69 69 72 75 80
21 22 23 26 28 31 35 39 42 45 46 43 42 43 45 48 53 50 55 58 60 61 64 67 67 69 70 72 74 76 78 81
26 27 30 31 34 37 39 42 42 42 39 43 44 44 52 55 59 58 59 60 63 64 65 66 69 71 73 75 78 81 84 85
25 26 29 34 37 39 42 36 37 34 38 45 47 51 59 60 59 59 61 63 65 65 67 68 70 73 76 79 81 82 84 88
26 28 31 33 31 34 37 37 38 36 43 48 52 60 59 59 59 60 63 65 65 67 67 69 72 75 78 80 82 86 88 86
28 31 31 30 29 33 35 40 37 42 42 54 58 57 58 59 60 62 63 64 65 67 69 72 75 77 79 82 86 84 82 81
31 32 31 33 34 38 33 34 38 46 53 56 56 56 57 60 61 61 63 64 67 70 72 75 77 78 81 83 81 76 76 73
31 33 33 36 38 33 41 47 50 53 54 54 55 57 58 60 61 62 64 66 70 72 75 76 78 81 81 75 72 73 72 68

GFSFLT1_500_spd_066.txt.gz
Wind_Speed
14 14 16 15 16 18 16 15 14 11 10 9 9 8 7 6 7 9 13 15 17 20 25 29 32 35 38 41 43 45 46 48
11 10 8 8 8 8 8 9 8 8 8 7 7 7 7 9 12 14 16 19 23 27 30 34 37 40 43 46 47 48 49 50
9 10 10 9 9 10 11 9 9 9 10 8 7 8 9 12 15 18 21 24 28 31 35 38 40 44 47 49 50 51 52 54
7 6 6 6 7 8 8 9 10 9 8 8 9 10 12 15 18 22 26 30 33 36 39 41 44 47 49 50 53 55 55 56
8 10 10 11 12 11 11 12 9 8 10 11 12 13 16 19 24 27 31 35 38 40 44 46 48 50 48 50 52 54 56 59
8 10 8 13 14 12 11 12 12 11 13 15 16 18 20 24 28 32 36 39 42 46 48 50 51 51 50 57 59 61 60 60
15 15 14 15 14 12 11 10 13 12 14 19 20 22 25 31 32 36 40 43 46 49 50 49 50 52 54 60 65 67 65 64
20 18 16 15 13 13 14 12 14 14 16 19 23 27 32 33 36 40 44 47 49 49 52 51 52 58 60 64 68 69 66 66
18 17 15 15 16 18 14 10 14 16 20 24 26 32 34 38 43 45 48 49 48 50 51 47 57 61 65 68 68 68 69 69
16 14 14 14 16 19 11 14 18 21 25 28 33 36 38 44 47 47 45 48 49 50 45 48 60 66 65 67 68 70 70 72
15 16 16 17 19 18 19 21 24 27 31 35 38 40 45 48 48 46 49 53 53 53 52 56 63 63 64 68 69 71 72 73
20 20 20 20 22 24 22 26 30 32 35 40 43 47 47 46 50 52 54 56 59 59 57 59 62 64 66 68 70 71 73 76
24 23 24 25 27 25 29 33 35 38 41 43 45 44 47 49 50 48 43 57 68 62 63 64 64 66 68 69 71 73 76 79
25 28 29 30 33 33 36 37 38 39 42 43 41 47 48 50 51 53 50 65 64 63 65 66 66 67 69 71 73 76 79 80
27 27 27 29 32 34 36 39 39 38 39 41 44 47 47 54 57 59 64 63 63 64 66 66 67 68 70 73 76 79 79 80
24 25 27 29 31 31 33 34 35 36 39 42 38 46 52 57 60 65 63 63 64 65 65 65 67 70 74 76 78 79 79 82
25 27 29 29 30 32 32 34 35 40 41 38 45 52 56 60 62 62 62 64 65 65 65 67 70 74 76 77 79 80 82 79
28 28 29 30 30 32 33 33 40 38 41 47 51 55 56 58 59 62 63 65 65 65 67 70 74 75 76 78 80 82 81 78
28 29 30 30 31 31 34 37 40 42 45 48 51 54 55 58 60 63 64 64 65 66 70 72 73 74 78 80 82 81 78 75

GFSFLT1_500_spd_069.txt.gz
Wind_Speed
18 19 17 16 17 16 13 12 13 15 17 16 14 15 15 14 12 12 11 11 13 17 20 24 28 30 33 35 38 40 43 44
12 14 12 11 11 11 13 13 14 15 15 17 17 16 15 14 13 11 11 14 18 21 25 28 31 35 37 39 42 44 45 45
13 13 14 14 14 15 16 16 16 17 17 17 17 16 15 14 12 12 14 18 22 25 28 32 35 38 40 43 45 48 50 48
14 15 15 15 15 14 14 13 13 12 14 15 15 15 15 14 13 15 17 22 26 29 33 35 38 41 43 46 46 49 49 53
9 8 10 11 10 10 10 11 12 14 15 13 14 15 18 19 15 18 21 25 30 34 37 39 41 44 45 49 48 48 49 52
11 11 9 10 11 12 13 13 13 13 16 16 17 18 21 18 16 23 25 30 34 37 40 43 44 44 49 49 48 52 56 59
17 15 14 15 15 14 14 15 16 15 17 19 19 22 24 18 22 27 28 34 39 42 43 43 46 49 52 52 53 55 61 64
21 22 21 15 18 17 17 18 18 18 21 19 21 24 25 24 27 32 31 41 42 43 41 44 48 53 49 53 58 62 66 66
20 23 22 18 17 18 20 21 24 18 21 20 22 24 27 27 34 34 40 44 43 42 45 48 52 50 53 62 60 61 64 66
21 21 21 18 17 18 20 24 17 17 22 24 27 28 30 33 31 39 46 46 41 45 51 54 55 57 64 61 62 64 66 67
19 22 23 22 22 20 20 22 24 23 25 28 30 32 34 35 36 41 42 39 46 49 54 50 35 65 70 65 66 67 68 69
20 23 24 24 23 24 25 26 30 29 31 33 35 37 39 36 33 44 42 49 51 51 49 59 62 71 67 67 68 69 69 71
24 24 26 26 26 28 29 29 31 36 36 36 39 39 35 35 40 41 52 46 50 55 61 63 70 67 68 69 70 71 71 73
26 26 27 30 33 33 35 36 34 35 35 37 36 30 33 34 44 41 40 50 58 62 66 70 67 67 69 70 70 71 73 76
31 30 28 32 33 33 32 33 34 34 33 30 33 30 34 41 51 41 43 61 66 69 69 66 68 69 70 70 71 74 75 75
26 26 28 32 32 29 30 33 32 31 33 34 33 36 40 43 45 45 61 66 66 69 68 68 69 69 69 71 74 74 75 77
28 27 27 28 31 29 31 31 32 33 33 34 37 39 32 43 52 58 63 68 66 66 67 68 68 69 71 74 74 75 77 79
29 30 29 28 30 30 31 32 32 32 33 37 41 43 44 48 51 55 59 61 63 65 66 67 69 70 73 74 75 77 79 81
29 29 29 29 29 30 32 31 32 33 36 39 42 45 48 51 54 58 61 62 63 64 66 67 70 72 73 75 77 79 82 84

GFSFLT1_500_spd_072.txt.gz
Wind_Speed
23 21 18 18 16 14 12 10 11 11 11 12 13 14 15 15 15 15 18 13 12 12 15 17 20 25 28 31 33 34 37 39
12 16 18 16 12 12 11 10 11 11 12 13 15 17 17 17 17 17 14 12 12 16 19 22 25 28 31 34 35 38 39 41
6 8 11 11 12 12 12 13 13 13 14 16 17 19 19 19 18 18 15 14 16 19 22 25 28 32 33 36 37 38 41 43
9 9 10 10 11 12 12 13 13 15 16 16 16 18 19 20 20 18 17 17 20 23 25 27 31 34 36 36 37 41 44 44
6 8 9 9 11 12 12 13 15 16 16 17 18 18 19 19 21 23 21 19 23 28 29 31 34 37 37 36 39 44 42 47
11 11 11 13 13 14 13 13 15 16 17 19 19 18 18 21 25 25 27 22 27 29 30 35 39 40 37 41 45 47 48 53
16 16 15 16 16 15 15 16 17 17 18 22 23 22 23 25 28 27 20 25 30 30 34 40 42 36 38 45 49 53 51 59
21 19 18 20 19 19 18 19 20 20 20 23 26 24 22 19 27 32 30 32 34 32 40 44 38 41 46 49 54 54 57 66
17 18 20 21 20 21 21 20 19 21 28 27 24 22 21 24 31 37 36 36 35 37 41 40 43 46 50 50 55 51 54 70
17 20 23 23 20 20 21 21 22 25 23 22 23 23 27 32 35 37 38 40 40 38 42 46 46 51 50 52 61 62 65 74
17 20 22 22 20 21 22 23 24 25 24 24 27 30 32 36 39 40 39 35 36 44 44 47 43 41 50 64 67 70 72 71
23 20 20 21 21 24 25 25 26 28 29 31 34 36 39 40 39 35 35 35 37 43 43 53 42 51 61 65 70 72 72 71
23 24 25 26 27 27 29 32 32 34 32 36 39 39 40 38 38 35 31 34 42 47 57 56 56 57 71 70 74 72 71 72
23 24 25 27 30 33 37 39 41 41 41 42 39 38 38 40 34 29 33 41 52 59 62 48 56 75 75 77 74 72 72 72
25 27 30 31 32 36 38 39 40 41 38 40 40 37 37 35 32 32 41 47 50 53 56 64 74 74 73 73 73 73 73 73
28 29 32 33 32 34 39 37 37 37 39 39 38 36 38 38 38 39 40 51 52 53 63 72 74 72 72 72 72 73 73 76
27 29 30 32 32 32 32 30 33 35 36 36 36 37 36 39 42 43 41 48 52 60 66 64 68 70 70 70 71 72 75 76
28 28 28 30 32 33 33 32 32 33 34 35 36 38 39 40 42 45 48 52 54 58 62 65 67 68 69 70 72 73 75 77
25 25 24 25 27 30 32 33 33 33 34 35 36 38 40 42 45 49 52 55 58 61 63 64 65 68 69 71 73 74 76 78

GFSFLT1_500_spd_075.txt.gz
Wind_Speed
20 19 27 24 16 14 9 20 14 11 11 13 15 10 10 10 9 10 12 16 18 17 16 15 16 17 19 23 26 30 32 35
15 22 21 19 15 13 14 17 11 11 10 10 9 9 10 11 12 14 17 18 15 17 17 16 18 20 23 26 29 33 35 37
14 13 13 11 11 8 5 6 6 3 3 6 10 12 14 14 16 17 17 17 19 18 19 21 21 24 26 30 33 35 37 36
6 7 4 3 2 2 3 4 5 7 8 10 12 15 16 18 17 18 19 21 21 23 23 24 26 27 29 33 34 36 38 38
4 5 4 3 3 4 7 8 9 9 12 15 16 18 18 18 18 19 22 24 27 26 25 27 30 31 32 36 36 35 35 40
7 7 8 7 8 10 10 11 12 15 16 17 18 20 22 20 20 21 22 26 35 35 27 30 29 32 36 38 33 35 38 43
13 13 12 11 13 13 14 14 15 17 19 20 22 23 24 25 21 23 27 27 30 33 27 32 35 37 37 36 36 39 43 45
14 15 13 14 16 15 16 17 18 19 21 23 24 26 26 27 27 26 21 27 33 32 33 36 38 40 40 39 42 42 43 46
16 17 15 15 16 16 17 19 20 18 19 20 20 31 28 28 20 28 30 31 34 39 41 42 42 41 43 45 49 49 46 47
19 18 18 16 17 17 17 19 19 19 21 22 21 21 21 24 26 31 34 38 41 43 45 42 39 41 46 46 47 52 49 54
21 20 20 21 19 20 20 20 21 23 25 25 23 26 29 32 34 37 42 46 47 47 43 39 43 45 48 50 48 52 58 65
26 24 23 23 23 22 22 25 27 28 30 31 30 32 34 34 36 42 46 47 48 46 38 41 45 46 41 51 49 55 57 71
23 24 24 24 25 27 27 29 32 34 36 36 35 35 37 41 43 42 45 46 45 39 36 47 46 54 63 65 56 64 75 80
23 22 23 25 26 29 31 32 36 39 42 39 43 42 42 42 42 43 45 42 38 34 51 52 53 60 65 70 67 70 73 81
23 23 24 26 29 31 33 35 39 42 42 43 45 42 41 40 44 43 40 41 42 35 43 49 59 58 62 66 74 77 79 75
24 25 27 27 29 31 33 33 36 38 37 39 39 40 38 43 45 41 41 40 42 45 47 50 53 60 64 68 70 71 71 71
28 27 29 28 31 32 33 33 35 36 34 35 37 38 40 41 41 42 42 44 47 49 50 53 57 60 62 64 67 68 69 70
29 29 31 30 31 32 34 35 34 34 33 35 36 37 39 38 41 43 45 47 49 51 55 57 60 63 65 66 66 67 67 68
28 29 30 30 30 29 31 33 33 31 34 34 35 36 39 41 43 46 48 50 53 56 59 61 64 65 65 67 67 67 66 67

GFSFLT1_500_spd_078.txt.gz
Wind_Speed
22 24 25 20 19 15 15 11 14 18 19 18 14 10 13 20 16 15 12 10 10 12 14 16 14 13 16 18 19 20 24 28
15 24 21 16 18 22 11 10 8 4 5 10 17 16 14 8 6 6 6 9 10 14 19 17 18 17 19 21 22 24 28 32
22 14 9 13 13 8 13 9 10 7 7 7 7 5 4 4 7 9 11 13 15 16 18 19 20 21 22 24 26 27 30 34
13 16 14 13 8 6 8 7 6 4 5 6 4 4 6 9 12 12 13 15 17 23 23 23 24 23 25 29 31 31 35 37
10 9 6 6 5 5 7 6 6 6 6 6 7 9 10 13 15 17 16 17 19 25 27 26 29 26 26 30 30 34 37 40
9 7 9 10 9 9 9 10 10 11 11 10 11 12 14 16 18 19 18 19 21 26 29 24 38 34 29 28 33 35 37 38
12 8 8 7 7 10 11 11 11 12 14 14 15 15 17 20 22 21 19 21 27 29 30 29 26 33 33 35 42 43 43 45
11 11 12 7 7 7 7 9 12 11 14 16 16 17 16 19 22 22 25 26 27 30 29 29 35 37 37 40 46 43 42 47
20 16 11 11 8 9 10 11 13 13 11 14 14 17 19 19 17 23 25 27 31 32 34 38 42 43 41 46 39 41 44 49
25 22 20 15 14 12 13 14 13 14 15 15 18 20 22 19 19 22 26 31 34 36 39 44 45 46 48 43 41 45 48 49
22 24 23 21 19 20 20 19 19 19 20 21 21 24 25 24 25 28 31 33 36 41 42 45 46 38 52 39 44 47 51 49
18 20 25 27 28 22 20 23 24 25 26 26 28 27 31 30 31 35 34 37 42 42 44 43 45 38 49 48 48 48 59 64
18 22 23 24 26 26 22 24 27 29 30 30 30 33 34 34 36 37 37 39 40 42 45 38 44 39 40 46 56 56 63 66
24 18 21 23 26 28 26 24 28 34 37 33 31 40 37 36 38 40 39 39 41 44 45 42 41 38 44 47 50 60 55 63
20 20 19 22 24 25 29 30 31 33 36 37 37 32 37 40 37 35 37 41 41 41 41 42 43 45 47 49 53 56 58 62
19 22 25 23 26 28 29 32 31 33 30 32 35 35 35 36 37 39 38 41 42 43 42 44 46 49 51 54 57 60 62 65
24 23 26 33 24 29 32 32 30 31 34 33 34 35 38 40 39 39 40 40 43 44 47 48 51 54 56 59 61 63 65 66
24 29 31 36 30 31 33 34 34 33 33 34 34 35 39 39 39 37 40 43 45 47 50 52 55 58 60 62 63 65 66 65
28 30 33 33 33 33 35 36 36 35 33 32 33 34 36 38 39 42 44 46 48 51 54 57 58 60 61 62 66 65 64 66

GFSFLT1_500_spd_081.txt.gz
Wind_Speed
7 8 9 13 15 17 13 10 10 9 9 8 13 15 17 22 23 13 18 18 19 19 19 17 15 16 18 18 19 20 21 22
26 12 9 9 11 13 14 14 10 4 3 4 2 5 16 17 14 17 14 13 13 11 10 13 15 17 18 18 20 20 23 26
22 23 19 13 3 5 10 5 5 14 13 10 13 14 12 14 11 7 6 6 7 10 17 17 18 18 19 19 22 25 26 30
14 16 18 18 16 15 16 14 12 9 7 8 8 6 5 5 4 5 6 7 10 14 13 18 17 19 24 24 26 28 29 27
10 11 11 11 9 10 11 10 9 7 6 5 5 2 1 2 5 7 7 11 15 18 18 21 24 26 29 31 33 33 27 28
5 7 7 7 7 7 5 5 7 6 6 6 4 4 5 7 8 11 13 13 15 18 19 22 28 27 30 31 31 38 40 40
9 4 7 7 4 1 1 2 3 4 3 3 3 4 4 4 6 11 13 15 18 20 23 24 27 30 28 30 34 34 35 37
6 9 8 8 5 6 7 7 7 8 9 8 7 7 5 9 13 14 12 14 16 20 21 24 27 31 33 37 39 40 41 44
5 4 8 10 8 8 8 8 9 9 11 11 10 11 12 11 12 15 14 15 19 21 25 29 30 33 37 37 40 44 44 42
15 8 8 11 11 11 10 10 11 10 12 13 14 15 18 17 16 17 17 19 23 26 29 32 34 37 40 42 45 43 52 45
21 15 9 12 14 16 16 17 17 17 15 15 17 20 21 22 22 19 22 24 28 30 33 35 37 37 39 36 39 40 39 43
25 25 21 18 14 16 17 17 21 20 21 19 19 22 28 27 27 27 26 28 29 33 37 38 37 36 37 35 34 36 41 42
18 22 29 28 19 18 14 18 20 23 25 24 21 23 30 34 33 29 29 30 33 37 36 38 37 39 37 36 37 39 43 45
15 18 22 26 21 18 17 18 20 23 27 27 26 27 30 33 32 33 32 35 33 33 36 35 35 40 39 39 41 45 46 48
24 13 15 20 23 23 21 20 22 25 27 28 30 30 34 39 32 34 34 34 37 35 36 36 40 40 41 42 45 49 51 53
27 17 13 15 19 23 24 24 25 27 29 30 28 29 30 33 34 35 35 34 37 37 42 42 39 41 45 47 49 52 54 56
25 25 24 20 16 20 22 27 30 29 29 30 33 34 34 33 33 37 36 38 40 37 40 41 41 46 49 51 53 55 58 60
24 27 28 28 27 25 27 29 31 32 32 33 33 32 33 34 36 38 37 38 40 40 42 43 46 50 53 54 58 61 61 62
28 27 26 30 33 33 33 33 32 33 33 34 35 33 34 35 38 40 41 41 43 43 46 50 52 56 59 60 63 63 64 66

GFSFLT1_500_spd_084.txt.gz
Wind_Speed
13 5 10 11 11 7 8 8 9 9 12 12 20 18 21 15 17 19 23 28 19 18 19 21 20 16 16 18 18 18 18 19
17 7 7 9 13 9 1 11 10 7 8 8 10 11 16 17 18 21 16 15 17 19 18 19 17 17 19 20 18 19 20 23
16 16 16 8 8 6 6 9 11 7 4 3 7 11 13 13 17 19 17 17 17 19 14 12 16 19 19 18 18 20 23 27
9 11 12 16 19 18 12 12 12 9 9 12 11 13 14 16 14 10 10 13 13 11 13 12 18 19 16 18 21 23 25 32
7 5 6 10 14 16 15 13 14 13 12 10 9 9 9 8 7 7 7 8 8 13 13 13 16 19 20 23 24 26 26 33
7 5 8 5 9 10 9 9 10 10 12 10 8 7 5 5 5 5 7 9 12 17 17 15 19 19 22 26 31 28 27 28
5 5 5 9 4 2 4 5 6 7 6 7 8 8 8 6 6 6 6 12 15 17 15 15 18 19 19 22 25 28 32 33
6 10 5 4 5 3 3 3 3 5 4 4 5 5 7 10 12 14 12 11 15 15 14 16 17 19 23 27 29 33 37 40
10 9 12 8 5 5 4 5 4 5 7 8 8 9 10 12 14 15 14 13 14 16 16 20 22 25 26 29 33 37 41 43
10 8 10 12 12 10 9 7 7 8 9 10 12 13 15 16 19 20 19 17 20 22 24 26 28 29 30 33 36 38 36 36
9 10 10 9 12 14 15 16 16 14 13 14 16 17 19 20 21 23 25 24 27 27 29 31 30 29 34 33 34 35 35 38
24 22 16 14 14 15 17 18 18 17 15 16 18 20 23 25 24 25 29 33 30 32 30 31 34 35 35 35 33 34 38 39
21 18 19 18 17 17 17 20 20 20 20 18 19 23 24 30 32 32 35 37 37 28 28 29 31 34 37 34 33 38 42 40
22 15 14 18 17 14 11 15 17 21 22 22 22 24 27 32 35 33 37 46 29 34 30 30 34 36 34 38 41 43 43 45
23 17 11 12 17 13 14 15 18 21 21 22 24 26 28 28 31 29 40 30 34 36 32 34 37 38 41 43 41 45 45 47
28 20 18 19 16 18 18 17 19 22 24 25 23 24 28 30 30 27 33 33 33 33 35 37 39 39 42 42 43 46 48 51
22 22 24 20 19 20 18 20 22 25 26 25 25 27 28 29 32 34 34 34 35 37 37 39 39 42 41 43 48 51 52 53
22 18 22 25 22 22 21 24 27 28 28 28 28 30 30 32 33 35 37 39 39 40 40 41 41 43 45 49 52 48 58 60
25 28 29 29 28 27 28 29 30 30 29 30 31 32 33 34 36 37 39 41 42 42 43 44 48 50 51 54 55 57 61 63

GFSFLT1_500_spd_087.txt.gz
Wind_Speed
16 8 8 10 13 11 11 12 13 13 16 19 22 23 24 16 22 27 32 30 27 28 26 27 24 23 21 19 19 20 17 18
17 14 5 9 12 14 10 11 16 13 15 15 18 23 25 23 26 24 29 27 27 28 20 17 19 21 20 18 18 18 19 21
13 15 9 6 6 14 10 9 17 12 12 14 16 21 33 31 31 28 24 25 21 16 14 17 21 21 18 19 20 21 24 24
7 8 12 10 9 9 11 12 13 15 16 17 19 21 21 18 20 18 18 20 20 19 19 20 20 17 22 21 25 23 24 26
5 5 5 6 10 9 9 10 11 12 15 15 13 15 16 17 16 14 14 16 18 17 18 17 17 20 23 22 22 24 26 28
2 3 4 2 3 7 8 9 7 10 12 12 11 12 11 10 11 12 13 12 11 13 17 19 19 19 21 20 25 27 28 29
3 1 2 1 4 4 8 8 8 8 9 10 9 11 12 14 14 13 11 11 15 18 23 22 19 19 21 23 25 27 29 29
1 4 7 7 4 4 6 5 5 4 3 5 4 6 7 7 10 11 11 11 14 18 18 20 20 22 24 24 28 29 31 32
4 3 4 8 8 7 6 6 8 6 5 4 4 6 8 9 12 15 15 16 17 19 19 22 22 24 26 28 29 31 33 35
8 6 7 6 9 9 11 11 10 8 7 6 7 8 11 11 15 17 19 18 20 22 24 25 28 30 31 30 31 34 34 39
13 11 10 12 12 13 13 15 14 14 11 12 13 14 14 16 18 20 22 24 26 27 27 31 34 35 31 33 32 37 38 37
15 19 21 21 19 15 14 17 20 19 17 14 13 15 16 19 19 22 24 29 33 34 37 39 37 33 37 30 38 37 38 39
16 18 17 13 14 19 17 17 19 21 21 18 14 17 20 23 24 26 29 33 37 41 43 43 38 36 40 38 39 40 40 38
19 15 13 13 11 11 15 18 17 18 21 21 18 21 23 25 28 28 32 35 39 37 59 42 34 36 34 38 40 41 43 46
24 17 11 9 10 10 13 18 18 17 17 19 20 21 24 27 30 31 35 38 35 29 29 26 28 32 36 39 44 43 42 46
27 22 15 17 15 15 18 19 19 20 20 20 22 24 26 27 29 31 33 33 34 33 33 31 34 36 37 40 42 43 44 47
31 32 22 19 20 20 24 24 24 23 23 22 24 27 28 29 30 32 34 35 33 33 37 36 38 40 41 41 42 43 47 42
33 31 23 21 22 24 25 28 26 27 25 26 27 28 29 30 32 33 35 36 36 37 37 39 39 39 40 44 45 48 51 49
32 34 25 22 25 27 28 28 28 29 30 32 31 30 30 31 34 36 38 38 40 41 41 41 41 43 46 47 51 48 46 63

GFSFLT1_500_spd_090.txt.gz
Wind_Speed
17 15 5 9 14 14 11 8 9 11 13 19 19 21 22 26 30 26 24 23 31 32 28 25 29 28 28 29 25 26 23 19
15 20 7 4 11 14 11 11 15 15 20 22 23 25 19 24 24 25 27 27 31 34 32 28 28 29 28 25 21 23 23 23
10 16 14 2 8 12 12 8 14 13 16 21 27 30 33 28 27 27 24 27 31 32 31 28 28 24 24 24 25 24 24 22
8 9 13 7 4 9 12 15 16 18 14 18 21 26 30 34 30 29 29 29 29 26 24 22 20 19 22 24 24 24 23 22
5 5 6 8 7 3 5 6 7 8 10 14 20 23 24 31 35 32 31 27 24 23 20 20 19 20 23 24 26 24 26 22
3 2 2 1 3 4 4 7 7 7 6 7 7 9 14 17 19 17 13 13 16 18 20 20 21 22 25 25 26 28 26 25
6 4 2 0 2 2 2 1 5 8 9 10 11 13 15 16 17 18 17 16 18 21 23 23 24 25 25 26 29 30 28 29
6 5 5 4 3 4 4 4 4 4 6 7 9 11 12 13 12 11 12 15 18 20 21 22 25 28 26 29 29 27 30 33
12 8 5 5 6 6 6 6 5 7 7 8 8 9 10 11 11 13 16 15 15 15 17 18 20 26 30 32 31 30 32 34
15 12 9 5 7 10 11 8 8 9 6 6 8 9 10 11 10 11 13 15 16 18 19 19 22 27 30 33 33 34 39 38
17 14 11 8 9 13 13 13 13 14 12 14 15 15 15 16 14 16 17 18 19 21 21 23 28 32 34 38 41 45 46 39
23 14 16 19 18 19 18 17 17 18 21 22 23 22 20 17 16 19 20 22 22 23 26 30 32 37 44 45 49 48 48 46
23 21 17 18 20 17 22 22 20 21 25 24 24 24 22 18 20 22 22 22 24 26 28 34 41 48 51 55 42 52 40 47
27 19 17 16 17 14 16 24 25 23 23 23 21 20 16 19 20 22 24 26 28 30 31 41 25 30 26 35 48 38 41 44
22 20 18 14 11 13 15 18 23 22 20 20 19 18 18 19 23 25 26 27 29 33 32 33 33 30 27 28 28 33 40 45
23 26 22 14 15 17 19 17 19 19 19 20 22 22 22 24 26 28 29 30 31 34 37 39 36 35 35 35 37 41 43 45
26 26 27 28 18 18 21 21 22 26 24 23 24 25 25 27 28 30 32 34 35 37 39 40 41 41 41 39 43 43 44 45
26 26 30 27 18 17 21 26 28 29 30 29 29 29 30 30 33 35 36 36 38 39 41 41 41 42 43 43 44 44 47 45
21 24 27 26 19 18 22 24 27 30 33 33 33 34 35 36 36 36 37 39 40 40 41 43 45 46 47 47 48 47 40 49

GFSFLT1_500_spd_093.txt.gz
Wind_Speed
16 21 18 16 17 18 11 6 6 14 15 21 29 31 43 32 37 33 32 35 29 37 32 27 24 26 26 28 30 30 31 27
13 18 16 9 13 15 11 8 8 13 22 18 20 28 30 27 32 31 32 30 25 31 32 29 29 28 27 30 31 32 29 27
10 15 17 5 7 10 10 9 14 11 17 27 22 25 28 22 24 28 29 28 28 28 29 34 33 29 29 30 30 28 25 20
8 11 13 14 1 5 11 10 11 20 16 22 25 23 30 25 27 29 34 33 33 32 30 34 32 32 30 31 28 25 21 22
10 6 8 10 11 3 2 3 7 12 16 20 23 27 25 32 30 33 35 32 31 30 27 28 28 28 23 22 21 22 24 24
12 8 4 4 6 6 4 2 1 4 9 14 20 23 25 26 30 32 31 30 31 30 29 26 23 18 19 22 23 24 27 28
10 10 8 5 2 2 1 2 3 4 4 5 8 10 13 15 17 23 26 21 16 14 14 16 19 20 24 24 26 26 28 31
8 8 8 9 6 3 5 5 5 3 3 3 4 5 7 7 9 10 12 13 14 15 16 18 21 23 26 28 29 31 31 35
10 11 11 9 10 8 6 6 6 6 7 8 7 8 9 9 10 11 13 16 14 13 15 18 20 20 24 27 32 34 38 37
15 15 12 14 8 8 10 8 9 9 10 10 10 12 12 11 11 12 13 15 15 15 15 16 18 20 23 26 29 34 36 38
16 11 13 14 14 9 8 12 13 12 13 12 12 11 12 12 14 14 15 15 14 15 17 19 21 23 27 31 33 35 40 42
26 20 20 17 20 20 18 17 19 18 18 18 17 16 18 18 18 18 18 15 17 17 20 22 25 28 32 35 39 42 45 48
26 20 17 16 20 23 24 24 25 23 23 21 20 20 22 27 22 22 20 18 19 21 24 26 29 31 36 36 41 49 46 52
22 20 17 19 19 25 27 21 21 26 25 23 21 21 20 22 25 22 21 20 22 26 27 29 29 33 30 38 37 29 31 33
24 27 19 20 18 22 25 23 19 22 26 25 22 20 20 17 18 21 24 26 27 28 30 31 29 33 33 35 36 37 37 37
28 26 23 25 18 19 21 22 21 18 21 23 25 22 21 20 21 22 25 28 29 31 32 33 35 37 38 40 40 39 40 42
21 22 20 22 20 21 21 23 25 24 21 22 25 26 25 26 26 26 28 30 31 33 36 38 40 41 41 42 43 42 43 44
25 19 19 25 23 19 18 23 25 26 25 26 29 31 31 30 31 33 33 33 35 37 39 40 42 43 43 44 46 48 47 49
30 25 22 21 19 21 19 19 23 25 26 27 29 32 36 36 37 38 38 38 38 39 40 42 44 45 46 48 50 50 51 52

GFSFLT1_500_spd_096.txt.gz
Wind_Speed
21 21 23 24 21 14 14 17 18 20 13 14 28 40 48 43 47 40 41 41 41 42 44 39 33 34 30 30 30 29 27 27
18 17 19 20 15 10 12 14 13 13 5 13 24 36 39 45 37 35 41 42 42 44 39 35 34 34 31 27 27 27 30 30
14 15 15 16 11 9 9 11 12 11 11 17 24 30 37 36 39 43 42 44 41 36 33 33 36 34 31 31 32 32 30 29
11 12 14 13 10 6 8 9 8 12 6 13 23 27 25 40 31 35 41 38 36 38 34 26 30 34 35 37 35 33 32 28
11 9 11 9 9 6 7 10 9 10 13 17 17 19 23 30 20 25 34 28 27 30 34 30 31 33 34 33 33 32 31 25
12 8 9 10 7 8 6 3 4 7 14 15 18 21 25 24 29 26 28 29 30 31 31 32 31 31 30 30 30 24 24 25
10 8 8 11 10 5 2 5 2 1 5 12 15 21 23 25 35 33 22 29 34 36 34 37 32 29 24 20 20 20 22 23
13 9 6 7 8 8 5 5 4 2 2 6 8 9 14 18 20 21 23 26 29 25 20 19 17 17 20 20 21 22 25 30
18 15 9 9 8 8 7 7 8 6 6 5 7 8 9 9 9 8 9 10 11 13 13 15 17 17 20 22 22 25 28 30
19 20 14 13 11 10 8 7 9 8 9 9 9 8 9 11 11 12 13 14 15 14 15 17 19 20 19 22 24 25 28 28
21 20 19 14 13 16 15 8 8 10 11 11 10 9 11 11 13 15 16 17 17 18 18 19 20 21 23 25 26 27 29 30
24 23 22 20 19 17 16 20 18 14 15 16 15 15 13 12 14 17 20 20 21 19 19 19 20 21 25 26 27 30 34 35
27 22 22 21 19 19 21 22 22 21 22 21 20 18 18 18 20 19 24 23 22 22 23 22 21 23 25 30 32 32 34 39
24 22 22 21 18 19 20 21 22 23 21 22 22 19 17 20 21 22 25 28 25 24 24 24 26 27 29 30 33 32 34 37
23 23 21 20 19 18 22 20 15 16 20 22 25 25 24 23 24 21 20 26 28 28 27 29 30 31 32 32 34 37 39 41
27 24 22 20 21 22 24 19 17 18 20 21 24 26 25 26 25 24 23 25 27 29 29 30 32 34 34 37 40 41 44 46
32 27 26 24 23 26 29 24 21 19 22 24 22 24 25 25 25 26 26 27 29 30 32 34 35 37 40 43 45 47 47 48
30 34 31 25 26 31 27 24 23 22 22 24 27 27 25 28 30 31 31 33 35 36 37 38 40 42 44 46 48 51 52 53
32 39 28 26 27 31 29 24 24 24 23 25 26 27 30 31 32 33 35 38 40 41 42 44 45 46 47 49 51 52 54 56

GFSFLT1_500_spd_099.txt.gz
Wind_Speed
15 22 22 21 27 25 16 13 14 15 21 27 22 34 41 50 45 43 39 43 43 41 42 41 43 43 41 33 32 30 28 30
14 17 19 18 24 23 15 14 15 14 19 27 28 33 38 49 52 44 45 46 44 44 38 39 47 42 42 36 34 32 32 33
12 13 16 15 20 18 14 11 15 13 16 21 26 25 33 38 46 49 44 43 45 49 47 47 45 41 43 31 32 33 31 30
11 12 14 13 14 16 12 12 13 13 13 19 11 24 34 35 38 40 42 43 45 44 42 41 39 37 35 36 33 32 33 34
11 11 14 12 12 12 13 10 14 14 13 10 4 11 15 27 35 41 44 41 37 36 36 37 41 36 29 28 30 34 36 34
11 10 12 12 12 10 11 10 9 13 13 9 14 9 7 20 23 28 33 32 36 32 37 40 32 32 27 27 28 31 31 28
13 10 10 12 10 8 8 8 6 7 5 12 13 12 13 10 17 20 24 25 26 29 29 26 33 30 26 28 26 21 18 18
16 14 12 12 12 8 9 10 9 5 5 4 8 11 15 15 14 15 21 24 20 25 26 28 29 29 23 19 16 16 18 20
18 18 15 14 13 11 10 11 11 8 5 6 1 2 5 11 13 12 16 18 19 16 15 17 13 12 15 18 20 19 21 20
19 18 17 16 14 12 11 12 11 10 9 7 7 4 3 5 8 9 9 10 10 10 10 12 14 16 18 20 19 20 22 21
21 20 19 18 16 12 14 14 10 10 12 10 7 7 6 6 7 8 10 11 12 14 15 17 18 18 20 21 22 22 24 23
23 22 21 19 19 16 16 15 15 14 17 13 11 11 10 9 9 10 10 11 14 17 19 21 22 23 23 23 23 25 26 27
24 24 22 21 21 22 17 16 17 21 18 18 17 15 16 18 18 17 14 13 19 21 21 22 21 22 24 23 25 27 28 31
26 26 24 22 22 22 19 19 18 17 19 20 18 18 19 19 19 20 21 22 19 20 23 22 24 25 26 27 28 29 32 35
26 23 24 25 24 22 21 21 17 16 17 16 16 17 22 23 23 20 20 22 22 21 22 26 26 28 29 32 33 34 36 38
27 24 23 23 24 25 24 23 21 17 16 16 17 18 18 21 24 24 23 23 23 22 22 27 29 32 34 32 36 37 39 40
30 30 29 27 27 28 27 27 23 21 21 21 20 20 20 19 21 24 25 25 25 27 29 31 34 33 33 36 39 41 43 45
37 36 33 32 31 30 27 25 26 24 24 23 21 22 23 23 23 24 27 28 30 32 33 35 37 39 40 42 44 47 50 52
39 38 38 35 37 37 32 29 28 27 27 26 23 25 24 24 26 28 28 31 32 34 37 40 42 43 44 46 48 51 54 56

GFSFLT1_500_spd_102.txt.gz
Wind_Speed
15 22 20 20 18 24 17 14 9 15 14 15 15 22 21 32 45 40 41 38 40 33 32 29 32 37 40 37 31 37 33 29
14 19 17 19 17 22 17 11 9 12 14 15 17 22 25 28 39 40 45 43 39 38 30 28 31 33 43 38 41 40 38 30
15 18 15 16 16 19 19 13 10 10 13 17 21 22 28 30 44 46 43 39 44 43 43 38 38 36 38 32 41 41 39 34
15 18 15 15 13 16 17 15 11 11 14 15 22 26 29 26 43 45 46 40 39 40 40 42 41 35 38 36 39 42 42 33
18 19 15 13 11 13 15 14 12 11 15 17 15 23 14 23 37 40 44 47 41 43 43 41 42 41 44 45 40 32 33 31
21 17 16 15 11 10 13 11 12 11 12 16 14 9 19 16 28 28 39 45 46 40 38 39 39 37 33 29 28 28 25 31
20 18 17 15 12 8 10 11 12 12 11 12 14 10 16 12 14 28 37 39 37 44 42 35 29 32 31 27 23 23 25 24
21 21 18 17 14 10 8 11 10 10 10 11 10 9 7 9 10 5 18 22 29 29 25 26 30 21 24 23 23 24 20 14
20 22 17 19 16 13 9 5 11 9 9 10 9 8 4 4 8 8 5 15 20 17 20 21 22 22 26 21 13 15 17 17
21 21 18 19 17 15 13 10 11 10 6 7 8 6 6 4 3 9 5 9 15 18 15 11 11 14 12 12 15 17 20 21
21 21 19 18 17 16 17 12 9 11 12 8 6 6 2 2 3 5 7 7 8 11 11 12 13 12 15 17 19 19 20 22
22 22 21 18 18 18 18 17 12 9 13 13 9 7 6 4 5 7 8 6 6 6 8 9 11 13 15 16 17 18 21 23
23 23 20 19 18 19 18 20 16 14 13 15 15 13 11 12 13 11 10 8 8 11 13 13 15 17 19 19 19 21 23 24
25 24 21 20 21 20 20 21 20 17 17 13 13 14 15 17 16 14 14 15 17 14 14 17 20 21 22 23 25 26 28 30
27 25 23 24 23 23 20 21 20 19 18 15 13 13 14 16 19 17 16 16 16 18 17 19 21 25 26 26 26 29 32 34
18 22 25 25 25 25 23 23 22 20 19 17 16 13 14 14 17 21 23 22 22 22 21 21 23 24 24 28 31 34 34 36
15 25 26 26 24 24 24 24 24 23 21 20 19 18 16 18 17 17 19 21 23 22 23 23 24 26 27 31 34 37 39 40
34 18 28 30 31 30 27 27 27 26 23 19 22 21 21 20 21 22 21 22 24 25 26 27 29 31 32 35 37 40 43 44
31 33 33 22 27 32 32 30 30 28 25 24 23 24 24 24 21 20 24 25 26 28 28 30 32 34 36 37 40 43 44 47

GFSFLT1_500_spd_105.txt.gz
Wind_Speed
28 15 21 22 20 19 21 23 15 11 9 11 11 9 7 6 14 31 30 25 29 31 27 26 31 32 35 37 36 33 28 25
24 13 18 21 18 18 19 21 15 11 9 10 11 13 16 11 12 22 32 34 31 35 35 30 33 29 33 32 32 33 32 30
26 11 18 19 18 16 15 17 18 11 8 10 13 14 15 15 19 24 32 41 37 37 35 37 30 27 22 28 30 35 32 31
28 14 19 19 18 14 13 15 16 14 9 12 14 12 12 18 30 34 33 42 38 37 42 41 31 26 24 27 28 29 32 34
26 16 20 18 18 13 12 13 12 13 12 12 13 13 13 16 23 27 36 38 41 39 42 42 37 30 32 30 30 32 36 36
25 16 20 19 18 13 10 12 12 12 12 11 12 10 13 19 12 18 34 35 45 42 40 36 37 32 36 34 33 37 40 32
22 15 21 19 18 12 8 13 13 11 12 11 11 10 6 14 20 12 44 40 35 45 39 35 33 32 33 38 38 31 29 28
19 14 18 18 19 14 9 12 10 8 10 9 8 7 5 3 11 6 18 32 34 38 40 34 31 33 34 33 30 28 27 24
19 16 20 21 20 17 11 10 11 9 9 9 6 6 3 6 4 6 5 21 33 32 30 33 30 28 30 29 24 25 26 20
19 19 21 22 22 20 14 13 13 10 6 8 6 4 4 5 4 5 5 3 22 26 24 26 25 23 24 24 29 24 17 17
24 23 23 23 24 21 15 12 13 11 8 7 8 5 2 5 7 7 11 12 11 10 11 15 17 18 17 20 19 14 13 18
27 24 25 25 26 21 16 13 13 12 11 8 9 7 3 2 5 7 7 7 8 8 11 14 16 18 17 17 17 19 19 19
27 27 25 25 24 22 18 15 14 14 13 12 12 10 9 6 6 6 6 7 10 13 13 14 14 16 18 19 20 21 20 21
18 24 24 24 25 24 20 19 17 16 15 14 13 11 12 13 12 11 12 13 13 15 14 15 19 21 21 20 19 20 22 25
22 27 23 25 26 27 25 20 18 18 17 14 13 12 10 13 13 15 15 15 16 17 18 18 19 20 22 24 24 25 27 28
32 28 32 27 27 27 27 23 20 19 19 17 17 14 11 11 14 14 18 20 21 20 19 19 19 21 20 25 27 25 29 32
31 27 30 33 27 27 28 24 23 21 19 19 18 18 15 13 13 17 16 19 21 22 23 23 21 20 20 23 27 29 31 34
32 33 30 31 31 28 28 25 25 22 22 20 17 17 18 17 17 16 18 19 21 21 21 22 23 24 25 28 32 34 35 37
28 37 28 19 18 33 31 27 27 27 25 22 16 18 19 17 18 18 19 21 22 24 25 25 24 27 28 29 30 31 33 35

GFSFLT1_500_spd_108.txt.gz
Wind_Speed
28 23 19 23 27 22 19 22 21 21 17 13 12 9 2 5 29 40 33 37 40 34 30 32 35 34 34 33 34 35 35 29
31 26 13 20 24 19 18 20 19 18 17 14 12 13 10 7 6 17 33 37 37 34 33 33 29 29 34 36 36 36 37 32
28 26 11 19 21 19 18 18 18 15 15 14 12 11 11 12 13 13 20 30 37 33 31 32 28 29 27 32 37 37 36 39
24 25 15 16 19 19 17 18 16 14 13 13 14 12 13 13 15 17 16 21 25 34 34 37 34 28 25 30 27 30 31 33
28 27 17 17 21 19 18 17 15 13 13 11 11 14 17 19 16 20 22 28 34 35 38 34 33 32 28 27 25 23 24 28
29 25 21 19 23 18 17 17 15 13 14 14 10 11 16 20 19 20 21 30 35 39 40 39 37 36 37 31 31 31 31 27
27 22 21 22 23 19 17 16 15 13 15 13 10 10 13 15 14 17 26 38 28 36 34 41 37 40 38 34 32 31 31 31
27 22 16 22 22 20 17 16 15 10 11 12 10 9 11 13 9 7 21 37 41 40 37 37 35 36 36 34 29 41 33 35
25 21 18 20 23 21 16 17 16 13 14 13 8 8 7 10 8 5 10 37 38 40 36 35 36 34 36 32 32 31 28 29
24 24 20 23 26 19 19 19 18 16 14 15 7 4 6 4 11 7 4 22 34 39 33 36 36 37 35 36 33 29 29 28
33 25 22 26 23 23 21 21 20 17 14 15 9 3 3 3 3 6 12 14 26 29 31 31 29 34 33 32 30 30 30 30
34 31 27 26 24 24 23 22 21 19 16 14 12 6 4 5 6 8 8 15 19 20 24 24 25 22 21 21 24 29 31 27
39 33 28 28 27 25 24 24 23 21 18 14 13 10 9 9 9 8 10 7 8 13 17 17 18 18 18 17 16 17 18 21
38 41 38 33 28 28 27 25 26 23 19 17 13 10 10 13 13 13 12 11 13 16 16 17 19 21 23 23 22 21 24 27
34 35 44 38 34 31 30 28 26 24 21 17 14 11 10 12 15 17 17 17 18 19 20 20 21 22 23 24 24 26 28 28
37 29 42 40 38 35 33 30 27 24 21 19 16 13 10 11 12 15 18 20 19 19 19 19 20 22 22 25 27 30 30 31
48 39 23 42 37 35 33 30 27 26 23 21 19 16 13 12 13 12 16 17 20 23 25 24 23 23 24 25 26 29 32 34
25 32 27 23 25 38 35 33 30 28 26 23 21 18 15 15 15 14 13 13 18 20 22 24 24 25 26 27 28 29 31 33
24 26 31 31 29 31 39 36 34 31 28 26 24 19 17 15 15 16 15 14 15 16 18 21 23 24 26 29 30 31 32 32

GFSFLT1_500_spd_111.txt.gz
Wind_Speed
39 38 32 27 26 27 20 20 18 22 25 29 24 17 18 21 10 14 46 48 46 52 48 41 39 35 32 27 32 33 34 34
42 39 38 33 26 24 19 19 17 18 23 25 21 16 15 14 11 14 45 42 49 53 46 41 36 33 28 30 34 35 36 35
44 43 38 26 24 22 18 19 17 15 20 21 19 14 14 11 10 11 31 42 48 41 40 40 36 33 33 33 35 38 33 33
45 45 35 22 22 19 19 20 17 14 16 19 16 15 13 14 11 12 16 38 43 45 39 32 32 29 27 29 31 31 33 32
45 40 33 23 22 22 20 21 17 13 15 19 18 13 14 16 16 18 18 19 36 44 34 31 30 31 29 27 27 33 35 33
41 34 31 26 26 26 22 19 17 13 15 18 19 15 14 16 18 21 20 22 24 23 27 33 32 33 32 30 27 32 31 30
41 35 30 29 29 28 25 19 16 14 15 16 17 16 15 17 18 21 25 26 28 35 38 37 36 39 39 37 34 31 32 31
37 36 29 29 30 25 22 18 16 16 14 15 17 18 16 17 18 19 21 29 34 32 37 42 38 41 43 38 41 37 36 34
40 30 28 28 30 23 18 18 18 17 16 17 19 19 17 15 15 18 26 33 33 48 46 41 36 37 43 41 42 46 34 33
35 34 34 27 26 23 21 22 21 18 18 18 18 18 17 15 14 18 25 17 34 41 44 44 34 35 42 37 41 42 37 30
39 40 36 32 30 26 21 24 23 19 19 18 17 15 16 13 12 9 17 13 25 38 42 43 39 34 38 34 32 37 34 33
42 38 36 37 36 30 24 26 24 21 21 18 17 16 16 12 12 10 7 13 15 27 26 35 36 38 35 27 32 34 32 33
46 46 44 41 37 32 28 26 24 23 22 20 18 16 13 17 12 13 9 8 12 14 23 31 33 30 38 23 23 21 26 28
50 44 45 45 39 34 30 29 27 25 24 21 20 17 15 14 18 15 12 10 7 8 15 27 31 31 28 30 19 18 17 20
50 51 48 47 39 37 33 32 31 28 25 23 21 19 16 14 13 19 18 15 13 12 9 8 11 17 21 17 19 20 22 24
49 51 54 47 40 39 37 36 34 30 27 25 22 19 17 16 14 12 20 20 19 17 17 18 18 18 19 22 27 30 32 33
48 53 52 41 45 45 43 40 37 34 31 28 23 20 19 16 15 13 10 18 21 22 22 23 23 24 25 27 29 31 32 33
39 48 44 48 56 48 43 42 39 35 33 32 28 24 21 19 17 15 12 12 16 19 22 24 25 26 27 27 29 31 31 32
31 53 50 44 57 52 41 41 40 40 37 35 31 28 26 22 15 17 18 15 15 15 16 18 20 23 25 26 28 30 31 33

GFSFLT1_500_spd_114.txt.gz
Wind_Speed
37 39 37 31 33 33 32 31 33 28 21 20 20 24 26 25 24 27 32 25 35 38 42 38 40 42 41 38 38 35 33 32
40 42 37 29 33 34 32 34 34 25 20 19 18 22 24 22 21 25 36 26 38 40 47 44 43 36 36 37 37 37 35 34
40 41 35 30 33 34 33 34 34 24 19 17 18 18 22 20 20 21 32 22 29 44 47 51 46 35 38 36 35 34 36 37
39 38 35 33 33 36 33 35 34 24 17 16 16 17 20 21 18 17 19 20 23 30 46 51 45 41 35 33 34 36 38 39
41 37 38 34 35 39 35 37 30 22 17 17 15 14 18 20 15 18 13 14 27 32 41 46 44 41 39 34 33 32 35 35
40 35 35 36 33 31 34 37 31 21 17 16 14 14 17 18 15 15 17 13 10 38 45 45 45 39 35 34 31 29 32 34
39 31 33 38 34 32 32 35 30 20 19 16 13 12 14 17 17 14 15 16 17 21 37 44 45 32 33 33 30 30 31 32
36 32 35 37 35 32 34 34 30 21 20 17 13 13 15 16 17 17 17 19 21 21 24 24 31 33 33 34 33 34 29 28
38 35 40 37 39 34 34 30 31 24 21 18 14 15 17 15 17 17 17 21 23 27 28 27 40 37 34 34 38 38 35 35
42 37 40 40 40 34 33 31 30 25 22 20 15 16 17 15 16 16 16 22 27 26 34 32 39 40 40 38 40 43 41 39
43 40 46 42 36 34 36 33 33 25 23 22 17 17 17 15 15 15 16 18 27 23 23 36 42 43 41 43 38 42 43 40
41 39 48 43 37 37 35 36 30 27 26 24 19 17 18 16 14 13 16 14 14 18 20 36 39 43 38 38 41 37 39 36
38 39 43 44 39 40 38 35 30 32 28 25 20 19 18 16 14 14 15 16 15 16 17 28 31 34 38 41 49 38 36 27
37 38 48 45 42 43 42 38 35 33 30 26 22 21 19 15 16 14 15 13 15 10 8 20 25 35 39 46 41 41 32 33
30 42 50 45 44 47 45 43 37 34 32 28 26 24 20 15 15 12 15 16 13 11 7 4 16 28 32 39 32 30 29 29
22 45 50 49 49 45 46 48 38 36 33 30 28 25 22 18 15 12 12 16 17 14 12 9 7 5 23 28 34 23 14 18
14 40 53 51 49 48 53 50 42 39 36 34 32 28 25 21 19 15 11 12 18 20 18 16 14 12 11 12 16 18 22 25
17 15 54 55 48 47 49 44 45 41 40 38 35 31 28 25 22 18 15 14 14 20 20 20 20 19 20 21 21 23 25 27
15 15 50 57 55 51 42 44 41 41 43 41 39 35 33 29 24 22 20 18 16 15 17 20 23 24 24 25 26 27 29 29

GFSFLT1_500_spd_117.txt.gz
Wind_Speed
38 35 35 34 34 34 28 30 29 31 33 35 33 26 22 19 20 23 22 24 24 29 33 33 41 37 38 39 34 35 36 34
36 32 34 36 36 36 29 29 29 32 32 34 31 26 21 18 18 22 24 23 32 26 35 36 45 42 46 40 37 38 37 36
36 33 34 36 36 37 30 28 30 31 33 36 29 25 21 18 18 21 23 21 29 27 36 38 41 46 47 44 47 40 41 39
38 34 34 36 36 37 32 28 29 32 36 38 29 26 20 17 16 18 22 19 19 28 28 39 44 41 43 41 44 42 43 40
38 31 34 33 36 31 31 29 31 34 38 37 29 25 20 17 15 16 19 15 21 18 34 43 41 40 41 41 43 44 44 38
36 32 31 31 35 31 30 32 31 34 37 34 28 24 19 16 13 14 18 15 13 6 23 36 43 43 45 44 43 41 39 37
33 32 30 32 33 32 32 33 32 36 34 31 28 23 18 15 13 12 17 14 12 12 17 34 40 53 49 44 36 35 37 37
36 33 32 34 31 32 34 34 34 36 32 30 27 23 18 15 14 12 15 16 13 13 10 24 43 47 51 44 42 40 37 36
38 36 35 34 32 35 34 33 37 40 32 31 30 24 21 16 13 14 14 16 15 15 16 13 20 44 46 40 37 34 35 35
37 39 38 36 31 35 35 35 36 39 36 32 32 27 22 15 12 14 13 15 13 15 17 16 16 19 32 40 38 37 38 36
42 39 38 39 34 35 40 37 38 39 37 34 33 28 22 16 11 13 12 12 10 13 20 26 23 23 30 35 34 35 34 33
45 43 41 40 39 39 41 43 40 41 34 35 35 29 24 15 13 14 12 11 9 9 16 23 23 40 36 37 39 38 37 35
47 46 44 44 40 42 42 46 43 36 33 37 35 30 25 17 16 13 15 14 12 10 16 20 29 39 41 44 45 39 39 39
49 50 49 43 42 44 46 47 42 36 36 38 35 32 26 19 18 15 13 17 13 11 15 14 27 37 39 42 38 40 42 40
45 44 46 35 40 43 49 49 43 41 38 39 36 34 27 21 20 16 12 14 15 13 11 12 14 27 33 36 38 42 41 41
40 31 30 32 34 42 51 49 47 46 42 40 38 36 29 24 21 18 13 13 15 16 13 8 6 7 22 25 31 33 39 35
29 35 24 28 31 49 51 51 51 47 44 43 40 38 31 26 23 21 16 15 14 16 15 12 7 4 3 16 25 26 27 23
30 40 23 28 30 47 53 51 53 49 46 44 41 39 33 29 26 22 20 18 16 13 14 14 12 10 10 8 12 13 15 10
23 34 24 29 34 47 49 48 49 49 45 45 42 40 36 32 27 25 24 22 18 16 14 15 16 15 15 15 15 16 18 22

GFSFLT1_500_spd_120.txt.gz
Wind_Speed
43 41 41 39 35 33 33 35 34 33 29 31 31 31 29 28 31 28 22 19 21 23 23 24 27 31 35 36 35 38 37 32
45 45 43 39 35 33 34 33 32 33 29 32 31 31 28 28 30 27 24 20 19 22 25 30 27 38 38 35 38 40 38 36
50 47 43 38 36 34 35 33 33 31 30 34 31 30 28 30 29 26 26 23 21 22 29 33 33 42 43 42 41 44 40 36
47 46 42 38 38 38 35 33 32 30 31 33 30 29 28 30 29 26 27 24 22 22 27 27 37 37 43 43 43 41 38 39
45 46 39 38 40 38 35 34 31 29 32 31 31 32 30 30 28 27 27 25 22 22 27 31 39 40 43 49 48 44 44 39
43 41 41 39 42 40 35 35 30 29 33 32 32 32 32 30 26 26 25 23 21 21 26 31 47 51 43 49 48 47 49 47
47 46 41 45 42 37 35 35 29 29 33 31 34 34 33 31 26 26 24 21 20 19 22 22 37 44 40 46 48 52 48 48
47 48 45 46 40 37 35 35 28 30 33 33 36 36 34 30 26 26 24 21 19 20 17 16 28 41 41 45 48 49 49 47
49 49 48 47 41 37 37 33 27 34 34 34 36 38 31 30 28 27 26 21 19 17 18 16 18 34 44 45 46 46 48 46
47 47 47 46 44 41 37 35 29 35 35 36 37 38 32 30 28 29 25 20 19 17 16 17 7 25 41 45 50 50 47 44
47 47 48 49 46 42 39 36 32 35 38 39 39 36 33 30 29 30 25 19 17 16 15 14 14 12 19 42 51 48 43 41
45 46 48 50 47 42 40 37 35 38 41 41 40 36 35 30 30 31 26 20 16 15 13 13 15 18 20 19 28 40 37 41
47 47 50 49 46 41 40 40 35 40 44 43 43 36 34 30 31 31 27 20 19 17 17 17 20 22 30 28 33 32 35 34
47 48 50 50 49 43 42 42 38 41 45 46 45 36 35 31 31 31 27 20 21 20 20 21 21 25 37 36 38 35 34 39
48 44 48 48 49 45 45 44 42 43 47 48 45 40 37 33 32 31 28 21 21 24 23 20 22 22 33 41 35 40 38 39
50 43 43 44 47 47 44 47 41 44 51 51 46 40 39 35 33 32 27 22 21 23 25 21 19 14 22 30 37 37 43 45
49 45 42 44 43 45 37 37 39 46 52 51 46 42 40 36 35 33 27 23 22 20 21 21 16 17 14 23 25 35 43 38
48 42 41 42 42 37 33 35 38 50 54 52 47 44 41 37 37 34 28 25 24 19 15 18 17 13 8 7 23 23 32 40
46 41 40 40 41 42 34 33 39 50 54 54 49 46 43 38 38 35 31 27 25 21 16 14 18 18 15 12 8 15 21 20

GFSFLT1_500_spd_123.txt.gz
Wind_Speed
47 51 47 45 42 38 36 36 35 36 37 36 34 31 34 29 29 26 25 26 25 26 25 26 28 30 28 20 32 32 34 33
48 47 47 43 42 40 41 37 37 37 36 37 35 33 32 31 29 26 24 25 27 27 26 25 28 29 28 34 36 32 34 37
46 44 43 43 44 43 41 38 38 36 36 37 35 32 32 31 30 26 24 26 26 29 29 27 30 34 33 36 38 37 36 37
51 46 48 49 49 45 45 41 37 35 39 36 37 31 33 31 27 27 23 26 28 27 30 29 30 30 36 40 34 46 40 40
48 49 50 50 48 46 45 41 40 38 40 35 36 30 34 34 29 28 24 27 29 29 30 32 32 31 33 41 39 43 46 41
45 46 47 48 46 45 44 41 40 39 41 35 35 32 35 35 28 29 25 27 29 30 30 33 34 33 30 41 44 49 46 40
42 44 45 47 45 45 41 43 41 41 41 34 33 33 36 34 30 29 25 28 29 31 32 34 34 32 35 43 41 49 51 45
48 47 46 46 47 43 44 42 40 42 40 35 33 34 36 33 33 30 25 28 30 30 33 33 33 31 31 43 39 44 44 44
44 46 48 50 49 50 44 44 42 41 40 35 32 36 35 34 34 30 26 27 30 31 33 32 31 29 27 43 43 42 48 47
46 48 49 47 47 46 45 44 42 40 37 34 31 37 37 37 35 29 28 28 29 31 31 30 28 27 25 33 45 46 48 50
43 45 49 50 47 42 43 45 44 42 38 34 33 38 40 39 34 28 29 30 28 30 30 27 25 24 22 32 40 42 46 52
42 45 43 45 50 53 47 44 45 43 39 37 35 40 43 41 35 30 30 31 29 30 27 24 23 24 22 23 37 42 46 47
37 38 40 43 44 48 48 47 44 45 41 39 35 39 46 40 36 33 32 31 29 29 26 24 22 24 26 26 20 41 43 44
36 37 38 40 44 45 46 48 45 46 42 40 37 37 46 40 36 35 32 31 28 29 27 28 26 28 27 27 24 28 34 40
36 39 40 41 40 44 45 49 48 42 40 41 40 38 45 44 38 37 33 31 30 30 28 29 26 26 28 29 33 35 28 37
42 42 43 43 42 43 44 42 48 43 42 41 40 39 44 46 40 38 35 31 31 31 28 27 26 28 28 31 38 40 33 37
47 48 48 48 41 42 45 42 43 44 43 43 41 42 46 47 42 39 36 33 32 31 27 24 24 29 29 31 30 40 41 39
49 51 52 51 44 42 42 43 40 43 43 44 42 44 49 48 43 41 38 34 33 32 26 24 22 26 26 25 13 24 32 37
48 48 50 51 45 43 41 41 40 42 43 40 40 47 50 48 45 45 39 36 34 32 27 23 21 20 22 19 13 11 23 29

GFSFLT1_500_spd_126.txt.gz
Wind_Speed
51 50 50 51 49 43 39 37 36 37 32 31 36 34 32 33 35 33 29 29 23 22 21 23 26 26 29 28 30 20 21 26
51 52 50 50 47 39 41 38 35 37 36 34 36 34 33 32 36 33 29 28 23 22 21 24 27 26 27 28 28 32 25 32
49 53 55 50 41 42 39 39 38 39 37 36 36 36 33 33 37 32 29 26 26 24 25 23 27 29 27 30 31 33 27 36
44 57 55 47 45 41 37 40 40 37 36 35 38 37 35 33 37 28 29 29 28 25 25 24 26 30 30 30 34 36 33 33
53 55 48 50 47 42 42 43 42 42 38 38 40 35 36 34 37 31 32 29 27 25 24 25 27 30 32 32 35 35 39 36
50 49 46 44 46 44 45 46 44 43 38 41 37 37 35 36 37 33 31 31 28 25 24 25 28 30 32 31 32 38 40 41
45 44 45 50 47 45 43 42 41 39 38 39 37 37 34 37 37 32 30 30 26 25 25 26 28 31 34 32 35 43 37 41
41 42 39 41 43 43 44 42 41 40 40 38 39 40 34 37 37 29 32 30 27 26 26 26 29 33 33 34 34 37 38 43
39 41 37 41 43 44 44 44 45 42 43 42 45 37 35 36 34 30 33 30 28 26 27 27 31 34 33 33 33 29 42 41
37 39 42 42 43 43 41 46 45 43 43 41 38 38 35 36 32 30 34 32 29 28 27 29 31 34 31 32 30 26 40 42
33 39 41 40 43 46 46 45 45 49 50 49 43 36 35 36 32 30 35 29 29 29 28 31 30 33 29 29 28 19 40 41
48 47 41 39 41 43 45 42 43 42 39 40 37 35 35 37 33 31 35 31 30 30 29 31 29 31 28 26 23 22 30 44
45 41 36 40 39 39 43 39 40 47 44 40 35 36 35 38 35 32 35 33 31 31 28 30 28 29 26 26 26 27 22 39
34 31 32 34 38 31 33 34 36 39 43 45 38 37 36 38 36 33 34 33 36 32 29 30 28 28 28 28 28 24 24 25
29 29 31 35 34 30 31 33 36 36 38 38 40 39 36 39 37 33 32 34 35 33 30 31 27 29 29 30 29 27 27 21
26 31 39 35 33 33 30 31 32 31 32 37 40 38 42 42 39 35 31 35 36 34 32 32 27 28 28 30 33 28 29 31
31 37 38 38 36 35 33 33 31 30 31 33 41 44 40 41 38 36 32 35 37 35 33 33 29 29 27 25 30 30 33 36
34 39 44 47 47 45 40 36 34 31 32 35 39 39 41 39 38 36 36 36 38 36 35 34 29 29 28 26 23 26 28 28
44 49 53 56 56 53 47 40 36 34 32 36 39 37 39 37 38 39 38 38 41 40 37 36 30 29 27 23 21 22 24 15

GFSFLT1_500_spd_129.txt.gz
Wind_Speed
58 57 53 51 51 47 47 44 42 40 35 31 33 32 29 31 30 33 30 31 32 27 24 23 26 25 22 23 23 22 23 21
58 60 60 53 52 49 48 42 42 41 37 31 32 32 32 31 31 33 30 33 30 28 25 24 26 25 23 23 24 20 21 27
54 55 57 57 54 53 48 40 40 39 37 33 29 33 32 30 32 30 32 33 28 28 25 27 26 25 23 23 24 23 24 25
40 46 58 59 59 55 40 41 40 38 37 37 38 34 29 27 29 33 34 33 29 30 26 28 27 27 23 23 25 25 26 27
39 48 54 58 61 50 34 41 39 39 37 35 36 33 30 30 33 36 33 34 30 31 26 28 29 28 25 23 24 25 27 29
48 56 53 51 55 37 37 40 40 39 38 38 39 36 35 35 35 36 32 35 29 28 27 30 30 29 27 25 24 27 27 29
59 54 53 51 44 34 35 37 40 39 40 40 41 39 39 37 35 34 34 34 26 28 28 29 28 29 27 26 27 28 30 33
49 47 44 47 42 35 39 39 38 36 36 36 36 35 35 36 35 33 36 32 26 26 29 28 26 29 29 28 29 29 30 33
47 42 34 40 35 35 37 42 47 37 34 34 35 36 34 38 36 41 40 29 27 27 30 27 26 30 30 28 28 30 29 29
47 34 32 39 44 44 41 41 38 38 35 36 37 39 39 39 40 42 38 30 28 29 29 29 29 29 29 30 30 30 30 29
44 37 33 36 36 36 38 37 37 40 38 39 40 39 39 36 37 37 36 30 27 30 31 31 30 29 28 30 30 29 28 27
40 34 33 40 45 46 40 43 46 44 44 43 43 45 41 40 39 38 37 32 26 27 31 30 30 28 28 29 27 28 27 27
47 47 47 43 40 42 38 38 41 43 41 40 39 38 35 37 40 39 38 33 28 28 32 32 30 29 29 30 26 26 25 24
42 46 46 47 44 36 36 36 33 32 37 41 39 41 39 34 32 35 36 33 30 28 30 32 31 31 29 29 27 26 26 22
48 41 36 39 35 22 24 24 28 30 31 34 36 35 39 43 36 36 36 32 29 30 30 33 32 32 29 30 27 27 27 25
41 40 41 40 33 27 26 24 25 28 30 33 34 34 34 36 40 37 36 30 29 31 31 32 33 31 31 32 28 28 27 27
48 42 35 38 39 33 33 31 26 22 26 30 33 31 32 35 40 39 34 30 32 34 32 33 34 31 31 32 27 28 28 27
17 22 29 35 37 38 38 36 32 27 23 28 32 32 34 39 43 39 31 33 36 35 34 35 35 32 32 32 28 28 30 27
27 29 33 37 37 39 40 39 39 38 35 31 32 35 36 36 42 42 39 39 38 37 35 37 36 34 32 31 29 28 30 23

GFSFLT1_500_spd_132.txt.gz
Wind_Speed
62 65 65 64 58 57 53 46 44 45 39 36 32 33 37 39 37 37 35 32 29 27 27 25 25 24 25 23 21 19 17 15
57 63 61 61 59 58 58 53 49 47 39 38 33 32 36 37 37 37 33 31 29 27 28 27 26 26 26 23 22 20 17 16
49 55 59 64 62 62 61 59 54 46 42 40 35 34 37 39 38 37 33 32 30 28 29 26 26 28 27 25 24 20 18 19
50 52 53 55 56 57 60 58 58 49 44 46 39 34 35 38 35 38 39 35 32 30 34 28 25 28 29 26 27 22 20 20
57 51 54 57 48 53 56 52 49 42 44 46 41 37 36 37 38 40 41 33 30 32 34 29 26 29 30 30 29 24 21 20
61 46 53 55 57 53 51 49 41 37 39 41 42 41 38 35 37 36 38 34 32 33 34 30 26 28 31 32 30 28 24 21
52 55 55 57 60 58 50 48 45 40 39 41 41 41 39 35 36 37 40 39 37 33 32 30 26 28 30 32 31 29 25 26
44 49 50 51 58 57 48 46 39 33 37 35 37 40 40 38 38 41 41 40 35 32 30 30 26 28 31 33 30 28 26 28
40 44 50 48 53 60 37 41 37 36 38 33 36 39 39 36 39 38 39 37 34 32 28 31 26 29 31 32 29 28 27 29
39 42 43 51 55 50 39 37 38 33 30 38 46 46 37 36 38 38 36 35 35 34 33 34 26 31 32 32 31 28 29 30
41 41 44 40 41 41 39 42 39 35 39 44 47 43 39 36 39 37 36 39 41 39 37 34 30 31 32 33 32 29 29 29
39 42 38 40 37 36 42 42 36 42 43 39 34 33 34 40 42 42 42 41 40 37 35 34 33 33 34 34 34 30 28 30
46 34 47 41 44 40 44 43 39 38 39 41 42 39 42 41 42 43 42 43 40 37 35 36 31 31 34 36 34 31 29 28
44 47 49 48 47 48 44 39 39 43 45 43 41 46 48 45 42 41 41 42 42 41 39 36 34 34 37 35 33 31 30 27
51 49 48 47 50 49 41 40 40 42 41 36 37 37 39 42 42 43 41 40 42 42 38 37 37 36 37 36 32 31 31 27
36 34 30 44 44 43 35 38 38 32 28 24 30 33 34 37 38 42 45 42 39 42 39 38 38 36 36 35 34 33 32 30
31 26 24 26 32 34 36 37 37 36 30 23 20 27 34 35 38 38 43 46 42 40 38 38 37 35 36 36 36 33 32 30
20 22 30 29 31 34 35 40 43 41 34 34 26 25 31 37 39 39 42 42 43 37 37 37 39 36 38 38 37 33 32 32
24 25 25 31 36 40 46 47 44 45 39 38 23 25 31 38 41 40 42 39 42 38 38 45 34 37 39 41 39 35 32 32